Time,TemperatureF,DewpointF,PressureIn,WindDirection,WindDirectionDegrees,WindSpeedMPH,WindSpeedGustMPH,Humidity,HourlyPrecipIn,Conditions,Clouds,dailyrainin,SoftwareType,DateUTC
2013-05-15 00:00:00,70.4,61.7,29.99,SSW,206,5.0,11.5,74,0.00,CLR,,0.00,WeatherDisplay:10.37,2013-05-15 04:00:00,
2013-05-15 00:01:00,70.4,61.7,29.99,SSW,213,5.2,8.1,74,0.00,CLR,,0.00,WeatherDisplay:10.37,2013-05-15 04:01:00,
2013-05-15 00:06:00,70.3,61.6,29.99,SSW,210,6.9,11.5,74,0.00,CLR,,0.00,WeatherDisplay:10.37,2013-05-15 04:06:00,
2013-05-15 00:07:00,70.2,61.9,29.99,SW,221,4.4,6.9,75,0.00,CLR,,0.00,WeatherDisplay:10.37,2013-05-15 04:07:00,
2013-05-15 00:11:00,70.1,61.8,29.99,SW,226,4.8,9.2,75,0.00,CLR,,0.00,WeatherDisplay:10.37,2013-05-15 04:11:00,
2013-05-15 00:12:00,70.1,61.8,29.99,SW,214,1.8,9.2,75,0.00,CLR,,0.00,WeatherDisplay:10.37,2013-05-15 04:12:00,
2013-05-15 00:16:00,70.0,61.7,29.99,SW,227,5.7,8.1,75,0.00,CLR,,0.00,WeatherDisplay:10.37,2013-05-15 04:16:00,
2013-05-15 00:17:00,70.0,61.7,29.99,SSW,204,5.4,9.2,75,0.00,CLR,,0.00,WeatherDisplay:10.37,2013-05-15 04:17:00,
2013-05-15 00:21:00,69.9,61.6,29.99,SW,226,5.4,9.2,75,0.00,CLR,,0.00,WeatherDisplay:10.37,2013-05-15 04:21:00,
2013-05-15 00:22:00,69.9,61.6,29.99,SW,226,5.7,9.2,75,0.00,CLR,,0.00,WeatherDisplay:10.37,2013-05-15 04:22:00,
2013-05-15 00:26:00,69.8,61.9,30.00,SW,236,5.1,11.5,76,0.00,CLR,,0.00,WeatherDisplay:10.37,2013-05-15 04:26:00,
2013-05-15 00:27:00,69.7,61.8,29.99,SW,223,6.0,10.4,76,0.00,CLR,,0.00,WeatherDisplay:10.37,2013-05-15 04:27:00,
2013-05-15 00:28:00,69.8,61.9,30.00,SW,218,3.9,9.2,76,0.00,CLR,,0.00,WeatherDisplay:10.37,2013-05-15 04:28:00,
2013-05-15 00:32:00,69.6,62.1,30.00,WSW,239,7.4,11.5,77,0.00,CLR,,0.00,WeatherDisplay:10.37,2013-05-15 04:32:00,
2013-05-15 00:33:00,69.6,61.7,30.00,SSW,200,6.9,12.7,76,0.00,CLR,,0.00,WeatherDisplay:10.37,2013-05-15 04:33:00,
2013-05-15 00:37:00,69.5,61.6,30.00,SW,217,4.9,6.9,76,0.00,CLR,,0.00,WeatherDisplay:10.37,2013-05-15 04:37:00,
2013-05-15 00:38:00,69.5,61.6,30.00,SW,225,5.7,10.4,76,0.00,CLR,,0.00,WeatherDisplay:10.37,2013-05-15 04:38:00,
2013-05-15 00:42:00,69.5,62.0,30.00,SW,219,6.0,9.2,77,0.00,CLR,,0.00,WeatherDisplay:10.37,2013-05-15 04:42:00,
2013-05-15 00:43:00,69.5,62.0,30.00,SSW,199,3.1,9.2,77,0.00,CLR,,0.00,WeatherDisplay:10.37,2013-05-15 04:43:00,
2013-05-15 00:47:00,69.3,61.8,30.00,SW,234,6.4,8.1,77,0.00,CLR,,0.00,WeatherDisplay:10.37,2013-05-15 04:47:00,
2013-05-15 00:48:00,69.3,61.8,30.00,SW,216,4.6,11.5,77,0.00,CLR,,0.00,WeatherDisplay:10.37,2013-05-15 04:48:00,
2013-05-15 00:49:00,69.3,61.8,30.00,South,189,3.3,6.9,77,0.00,CLR,,0.00,WeatherDisplay:10.37,2013-05-15 04:49:00,
2013-05-15 00:52:00,69.2,61.7,30.00,SW,221,4.9,6.9,77,0.00,CLR,,0.00,WeatherDisplay:10.37,2013-05-15 04:52:00,
2013-05-15 00:53:00,69.2,62.0,30.00,SSW,197,2.5,6.9,78,0.00,CLR,,0.00,WeatherDisplay:10.37,2013-05-15 04:53:00,
2013-05-15 00:54:00,69.2,61.7,30.00,SW,229,5.6,8.1,77,0.00,CLR,,0.00,WeatherDisplay:10.37,2013-05-15 04:54:00,
2013-05-15 00:58:00,69.2,61.7,30.00,SW,226,3.0,8.0,77,0.00,CLR,,0.00,WeatherDisplay:10.37,2013-05-15 04:58:00,
2013-05-15 00:59:00,69.2,61.7,30.00,WSW,250,5.9,11.5,77,0.00,CLR,,0.00,WeatherDisplay:10.37,2013-05-15 04:59:00,
2013-05-15 01:03:00,69.0,61.5,30.00,SW,234,5.3,8.1,77,0.00,CLR,,0.00,WeatherDisplay:10.37,2013-05-15 05:03:00,
2013-05-15 01:04:00,69.0,61.9,30.00,WSW,254,4.6,8.1,78,0.00,CLR,,0.00,WeatherDisplay:10.37,2013-05-15 05:04:00,
2013-05-15 01:05:00,69.0,61.9,30.00,WSW,239,3.7,8.1,78,0.00,CLR,,0.00,WeatherDisplay:10.37,2013-05-15 05:05:00,
2013-05-15 01:08:00,68.9,61.8,30.00,SSW,211,2.7,6.9,78,0.00,CLR,,0.00,WeatherDisplay:10.37,2013-05-15 05:08:00,
2013-05-15 01:09:00,68.9,61.4,30.00,SW,220,2.6,7.0,77,0.00,CLR,,0.00,WeatherDisplay:10.37,2013-05-15 05:09:00,
2013-05-15 01:10:00,68.9,61.8,30.01,WSW,253,3.8,6.9,78,0.00,CLR,,0.00,WeatherDisplay:10.37,2013-05-15 05:10:00,
2013-05-15 01:13:00,68.8,61.7,30.00,WSW,246,4.4,9.2,78,0.00,CLR,,0.00,WeatherDisplay:10.37,2013-05-15 05:13:00,
2013-05-15 01:14:00,68.8,61.7,30.00,WSW,240,6.2,9.0,78,0.00,CLR,,0.00,WeatherDisplay:10.37,2013-05-15 05:14:00,
2013-05-15 01:15:00,68.8,61.7,30.01,WSW,249,5.9,10.4,78,0.00,CLR,,0.00,WeatherDisplay:10.37,2013-05-15 05:15:00,
2013-05-15 01:18:00,68.7,61.6,30.00,SSW,206,1.4,5.8,78,0.00,CLR,,0.00,WeatherDisplay:10.37,2013-05-15 05:18:00,
2013-05-15 01:19:00,68.7,61.6,30.01,SW,224,3.3,4.6,78,0.00,CLR,,0.00,WeatherDisplay:10.37,2013-05-15 05:19:00,
2013-05-15 01:20:00,68.7,61.6,30.00,SW,215,0.4,9.2,78,0.00,CLR,,0.00,WeatherDisplay:10.37,2013-05-15 05:20:00,
2013-05-15 01:23:00,68.6,61.5,30.01,SW,230,2.5,5.8,78,0.00,CLR,,0.00,WeatherDisplay:10.37,2013-05-15 05:23:00,
2013-05-15 01:24:00,68.5,61.4,30.01,SW,214,2.6,3.5,78,0.00,CLR,,0.00,WeatherDisplay:10.37,2013-05-15 05:24:00,
2013-05-15 01:25:00,68.5,61.4,30.01,SW,227,1.0,6.9,78,0.00,CLR,,0.00,WeatherDisplay:10.37,2013-05-15 05:25:00,
2013-05-15 01:28:00,68.4,61.3,30.01,SSW,210,0.5,4.6,78,0.00,CLR,,0.00,WeatherDisplay:10.37,2013-05-15 05:28:00,
2013-05-15 01:29:00,68.4,61.3,30.01,SSW,209,0.2,3.0,78,0.00,CLR,,0.00,WeatherDisplay:10.37,2013-05-15 05:29:00,
2013-05-15 01:31:00,68.4,61.3,30.01,SW,219,2.9,5.8,78,0.00,CLR,,0.00,WeatherDisplay:10.37,2013-05-15 05:31:00,
2013-05-15 01:33:00,68.4,61.3,30.01,SW,233,1.8,7.0,78,0.00,CLR,,0.00,WeatherDisplay:10.37,2013-05-15 05:33:00,
2013-05-15 01:34:00,68.3,61.2,30.01,WSW,254,2.6,6.9,78,0.00,CLR,,0.00,WeatherDisplay:10.37,2013-05-15 05:34:00,
2013-05-15 01:35:00,68.4,61.3,30.01,SW,234,1.0,3.5,78,0.00,CLR,,0.00,WeatherDisplay:10.37,2013-05-15 05:35:00,
2013-05-15 01:36:00,68.4,61.3,30.01,SSW,199,0.3,5.8,78,0.00,CLR,,0.00,WeatherDisplay:10.37,2013-05-15 05:36:00,
2013-05-15 01:38:00,68.3,61.5,30.01,SW,218,0.0,0.0,79,0.00,CLR,,0.00,WeatherDisplay:10.37,2013-05-15 05:38:00,
2013-05-15 01:39:00,68.3,61.2,30.01,SW,218,0.1,1.0,78,0.00,CLR,,0.00,WeatherDisplay:10.37,2013-05-15 05:39:00,
2013-05-15 01:40:00,68.3,61.2,30.01,SW,219,1.1,3.5,78,0.00,CLR,,0.00,WeatherDisplay:10.37,2013-05-15 05:40:00,
2013-05-15 01:41:00,68.2,61.4,30.01,SW,220,0.8,3.5,79,0.00,CLR,,0.00,WeatherDisplay:10.37,2013-05-15 05:41:00,
2013-05-15 01:44:00,68.2,61.1,30.01,SSW,196,0.3,2.3,78,0.00,CLR,,0.00,WeatherDisplay:10.37,2013-05-15 05:44:00,
2013-05-15 01:46:00,68.1,61.7,30.01,SSW,198,0.0,0.0,80,0.00,CLR,,0.00,WeatherDisplay:10.37,2013-05-15 05:46:00,
2013-05-15 01:47:00,68.1,61.3,30.01,SSW,199,0.0,0.0,79,0.00,CLR,,0.00,WeatherDisplay:10.37,2013-05-15 05:47:00,
2013-05-15 01:49:00,68.0,61.2,30.01,WSW,237,1.2,4.6,79,0.00,CLR,,0.00,WeatherDisplay:10.37,2013-05-15 05:49:00,
2013-05-15 01:51:00,68.0,60.9,30.01,SSW,209,1.4,3.5,78,0.00,CLR,,0.00,WeatherDisplay:10.37,2013-05-15 05:51:00,
2013-05-15 01:52:00,68.0,61.2,30.00,SSW,210,0.4,3.5,79,0.00,CLR,,0.00,WeatherDisplay:10.37,2013-05-15 05:52:00,
2013-05-15 01:54:00,67.9,61.1,30.01,SSW,201,0.6,3.5,79,0.00,CLR,,0.00,WeatherDisplay:10.37,2013-05-15 05:54:00,
2013-05-15 01:56:00,67.9,61.1,30.01,SSW,208,1.5,3.5,79,0.00,CLR,,0.00,WeatherDisplay:10.37,2013-05-15 05:56:00,
2013-05-15 01:57:00,67.9,61.1,30.01,SSW,208,0.8,4.6,79,0.00,CLR,,0.00,WeatherDisplay:10.37,2013-05-15 05:57:00,
2013-05-15 01:59:00,67.8,61.4,30.00,SSW,208,0.0,1.1,80,0.00,CLR,,0.00,WeatherDisplay:10.37,2013-05-15 05:59:00,
2013-05-15 02:00:00,67.8,61.0,30.01,SSW,208,0.3,3.0,79,0.00,CLR,,0.00,WeatherDisplay:10.37,2013-05-15 06:00:00,
2013-05-15 02:02:00,67.7,61.0,30.01,SSW,206,0.9,2.3,79,0.00,CLR,,0.00,WeatherDisplay:10.37,2013-05-15 06:02:00,
2013-05-15 02:04:00,67.6,61.2,30.01,SSW,206,0.0,0.0,80,0.00,CLR,,0.00,WeatherDisplay:10.37,2013-05-15 06:04:00,
2013-05-15 02:05:00,67.6,61.2,30.01,SSW,206,0.0,0.0,80,0.00,CLR,,0.00,WeatherDisplay:10.37,2013-05-15 06:05:00,
2013-05-15 02:07:00,67.6,60.9,30.01,SSW,206,0.0,0.0,79,0.00,CLR,,0.00,WeatherDisplay:10.37,2013-05-15 06:07:00,
2013-05-15 02:09:00,67.5,60.8,30.01,SSW,206,0.0,0.0,79,0.00,CLR,,0.00,WeatherDisplay:10.37,2013-05-15 06:09:00,
2013-05-15 02:10:00,67.5,61.1,30.01,SSW,206,0.0,0.0,80,0.00,CLR,,0.00,WeatherDisplay:10.37,2013-05-15 06:10:00,
2013-05-15 02:27:00,66.6,60.9,30.02,SSW,206,0.0,0.0,82,0.00,CLR,,0.00,WeatherDisplay:10.37,2013-05-15 06:27:00,
2013-05-15 02:28:00,66.6,61.3,30.02,SSW,206,0.0,0.0,83,0.00,CLR,,0.00,WeatherDisplay:10.37,2013-05-15 06:28:00,
2013-05-15 02:32:00,66.2,60.9,30.02,SSW,205,0.0,0.0,83,0.00,CLR,,0.00,WeatherDisplay:10.37,2013-05-15 06:32:00,
2013-05-15 02:33:00,66.2,60.9,30.02,SSW,205,0.0,0.0,83,0.00,CLR,,0.00,WeatherDisplay:10.37,2013-05-15 06:33:00,
2013-05-15 02:38:00,65.9,61.3,30.02,SSW,205,0.0,0.0,85,0.00,CLR,,0.00,WeatherDisplay:10.37,2013-05-15 06:38:00,
2013-05-15 02:43:00,65.8,60.8,30.02,SSW,205,0.3,3.5,84,0.00,CLR,,0.00,WeatherDisplay:10.37,2013-05-15 06:43:00,
2013-05-15 02:44:00,65.7,60.7,30.02,SSW,205,0.1,1.1,84,0.00,CLR,,0.00,WeatherDisplay:10.37,2013-05-15 06:44:00,
2013-05-15 02:48:00,65.5,60.9,30.02,SSW,202,0.3,2.3,85,0.00,CLR,,0.00,WeatherDisplay:10.37,2013-05-15 06:48:00,
2013-05-15 02:49:00,65.5,60.9,30.02,SSW,202,0.5,2.3,85,0.00,CLR,,0.00,WeatherDisplay:10.37,2013-05-15 06:49:00,
2013-05-15 02:53:00,65.4,60.8,30.02,SSW,202,0.1,0.0,85,0.00,CLR,,0.00,WeatherDisplay:10.37,2013-05-15 06:53:00,
2013-05-15 02:54:00,65.4,61.1,30.02,SSW,208,0.1,3.0,86,0.00,CLR,,0.00,WeatherDisplay:10.37,2013-05-15 06:54:00,
2013-05-15 02:58:00,65.3,61.0,30.02,SW,214,0.0,0.0,86,0.00,CLR,,0.00,WeatherDisplay:10.37,2013-05-15 06:58:00,
2013-05-15 02:59:00,65.3,60.7,30.02,SW,214,0.1,0.0,85,0.00,CLR,,0.00,WeatherDisplay:10.37,2013-05-15 06:59:00,
2013-05-15 03:03:00,65.2,60.9,30.02,SW,218,1.4,5.0,86,0.00,CLR,,0.00,WeatherDisplay:10.37,2013-05-15 07:03:00,
2013-05-15 03:04:00,65.2,60.6,30.02,SSW,207,2.0,4.6,85,0.00,CLR,,0.00,WeatherDisplay:10.37,2013-05-15 07:04:00,
2013-05-15 03:05:00,65.2,60.9,30.02,SW,214,1.8,4.6,86,0.00,CLR,,0.00,WeatherDisplay:10.37,2013-05-15 07:05:00,
2013-05-15 03:09:00,65.3,61.0,30.02,SSW,204,0.6,4.0,86,0.00,CLR,,0.00,WeatherDisplay:10.37,2013-05-15 07:09:00,
2013-05-15 03:10:00,65.4,61.1,30.02,SSW,205,2.0,3.5,86,0.00,CLR,,0.00,WeatherDisplay:10.37,2013-05-15 07:10:00,
2013-05-15 03:14:00,65.5,60.5,30.02,SSW,195,2.3,5.8,84,0.00,CLR,,0.00,WeatherDisplay:10.37,2013-05-15 07:14:00,
2013-05-15 03:15:00,65.6,61.0,30.02,SSW,212,1.7,5.0,85,0.00,CLR,,0.00,WeatherDisplay:10.37,2013-05-15 07:15:00,
2013-05-15 03:19:00,65.7,60.7,30.02,South,190,1.8,5.0,84,0.00,CLR,,0.00,WeatherDisplay:10.37,2013-05-15 07:19:00,
2013-05-15 03:20:00,65.7,60.7,30.02,SSW,197,3.2,4.6,84,0.00,CLR,,0.00,WeatherDisplay:10.37,2013-05-15 07:20:00,
2013-05-15 03:24:00,65.7,60.4,30.01,SSW,197,2.7,4.6,83,0.00,CLR,,0.00,WeatherDisplay:10.37,2013-05-15 07:24:00,
2013-05-15 03:25:00,65.7,60.4,30.01,SSW,199,3.5,4.6,83,0.00,CLR,,0.00,WeatherDisplay:10.37,2013-05-15 07:25:00,
2013-05-15 03:26:00,65.7,60.4,30.01,South,179,3.8,5.8,83,0.00,CLR,,0.00,WeatherDisplay:10.37,2013-05-15 07:26:00,
2013-05-15 03:29:00,65.7,60.4,30.01,SSW,194,3.8,5.8,83,0.00,CLR,,0.00,WeatherDisplay:10.37,2013-05-15 07:29:00,
2013-05-15 03:30:00,65.7,60.4,30.01,South,179,3.5,5.8,83,0.00,CLR,,0.00,WeatherDisplay:10.37,2013-05-15 07:30:00,
2013-05-15 03:31:00,65.7,60.7,30.01,SSW,200,1.6,4.6,84,0.00,CLR,,0.00,WeatherDisplay:10.37,2013-05-15 07:31:00,
2013-05-15 03:35:00,65.7,60.4,30.01,SSW,204,0.9,3.5,83,0.00,CLR,,0.00,WeatherDisplay:10.37,2013-05-15 07:35:00,
2013-05-15 03:36:00,65.7,60.4,30.01,SW,218,2.4,4.6,83,0.00,CLR,,0.00,WeatherDisplay:10.37,2013-05-15 07:36:00,
2013-05-15 03:40:00,65.7,60.7,30.01,SSW,200,1.5,5.0,84,0.00,CLR,,0.00,WeatherDisplay:10.37,2013-05-15 07:40:00,
2013-05-15 03:41:00,65.7,60.7,30.01,SSW,205,0.0,4.6,84,0.00,CLR,,0.00,WeatherDisplay:10.37,2013-05-15 07:41:00,
2013-05-15 03:42:00,65.7,60.7,30.01,SSW,206,0.1,0.0,84,0.00,CLR,,0.00,WeatherDisplay:10.37,2013-05-15 07:42:00,
2013-05-15 03:45:00,65.7,60.7,30.01,SSW,196,1.8,4.6,84,0.00,CLR,,0.00,WeatherDisplay:10.37,2013-05-15 07:45:00,
2013-05-15 03:46:00,65.6,60.6,30.01,SSW,196,0.1,3.5,84,0.00,CLR,,0.00,WeatherDisplay:10.37,2013-05-15 07:46:00,
2013-05-15 03:47:00,65.6,60.6,30.01,SSW,196,0.0,0.0,84,0.00,CLR,,0.00,WeatherDisplay:10.37,2013-05-15 07:47:00,
2013-05-15 03:50:00,65.5,60.5,30.01,SSW,201,0.1,1.1,84,0.00,CLR,,0.00,WeatherDisplay:10.37,2013-05-15 07:50:00,
2013-05-15 03:51:00,65.5,60.2,30.01,SSW,201,0.4,1.1,83,0.00,CLR,,0.00,WeatherDisplay:10.37,2013-05-15 07:51:00,
2013-05-15 03:52:00,65.5,60.2,30.01,SSW,202,0.2,1.1,83,0.00,CLR,,0.00,WeatherDisplay:10.37,2013-05-15 07:52:00,
2013-05-15 03:55:00,65.5,60.5,30.01,SSW,197,1.0,2.3,84,0.00,CLR,,0.00,WeatherDisplay:10.37,2013-05-15 07:55:00,
2013-05-15 03:57:00,65.4,60.4,30.01,SSW,200,1.2,3.5,84,0.00,CLR,,0.00,WeatherDisplay:10.37,2013-05-15 07:57:00,
2013-05-15 04:00:00,65.3,60.3,30.01,SSW,200,0.1,0.0,84,0.00,CLR,,0.00,WeatherDisplay:10.37,2013-05-15 08:00:00,
2013-05-15 04:02:00,65.3,60.3,30.01,SSW,200,0.1,1.1,84,0.00,CLR,,0.00,WeatherDisplay:10.37,2013-05-15 08:02:00,
2013-05-15 04:05:00,65.1,60.5,30.01,SSW,200,0.3,2.3,85,0.00,CLR,,0.00,WeatherDisplay:10.37,2013-05-15 08:05:00,
2013-05-15 04:07:00,64.9,60.3,30.02,SSW,200,0.1,2.0,85,0.00,CLR,,0.00,WeatherDisplay:10.37,2013-05-15 08:07:00,
2013-05-15 04:10:00,64.7,60.4,30.02,SSW,200,0.0,0.0,86,0.00,CLR,,0.00,WeatherDisplay:10.37,2013-05-15 08:10:00,
2013-05-15 04:12:00,64.7,60.1,30.02,SSW,200,0.0,0.0,85,0.00,CLR,,0.00,WeatherDisplay:10.37,2013-05-15 08:12:00,
2013-05-15 04:13:00,64.6,60.0,30.02,SSW,200,0.0,1.1,85,0.00,CLR,,0.00,WeatherDisplay:10.37,2013-05-15 08:13:00,
2013-05-15 04:16:00,64.4,60.1,30.02,SSW,200,0.0,0.0,86,0.00,CLR,,0.00,WeatherDisplay:10.37,2013-05-15 08:16:00,
2013-05-15 04:17:00,64.3,60.3,30.02,SSW,200,0.0,0.0,87,0.00,CLR,,0.00,WeatherDisplay:10.37,2013-05-15 08:17:00,
2013-05-15 04:19:00,64.3,60.3,30.02,SSW,200,0.0,2.3,87,0.00,CLR,,0.00,WeatherDisplay:10.37,2013-05-15 08:19:00,
2013-05-15 04:21:00,64.2,60.2,30.02,SSW,200,0.0,0.0,87,0.00,CLR,,0.00,WeatherDisplay:10.37,2013-05-15 08:21:00,
2013-05-15 04:22:00,64.2,59.9,30.02,SSW,200,0.5,1.1,86,0.00,CLR,,0.00,WeatherDisplay:10.37,2013-05-15 08:22:00,
2013-05-15 04:24:00,64.2,60.2,30.02,SSW,211,2.6,4.6,87,0.00,CLR,,0.00,WeatherDisplay:10.37,2013-05-15 08:24:00,
2013-05-15 04:26:00,64.2,59.9,30.02,SSW,209,1.0,4.0,86,0.00,CLR,,0.00,WeatherDisplay:10.37,2013-05-15 08:26:00,
2013-05-15 04:27:00,64.1,60.2,30.02,SSW,207,2.0,3.5,87,0.00,CLR,,0.00,WeatherDisplay:10.37,2013-05-15 08:27:00,
2013-05-15 04:28:00,64.1,60.2,30.02,SSW,201,2.3,3.5,87,0.00,CLR,,0.00,WeatherDisplay:10.37,2013-05-15 08:28:00,
2013-05-15 04:30:00,64.1,59.8,30.02,SSW,195,2.0,5.0,86,0.00,CLR,,0.00,WeatherDisplay:10.37,2013-05-15 08:30:00,
2013-05-15 04:31:00,64.1,60.2,30.02,SSW,211,1.9,4.6,87,0.00,CLR,,0.00,WeatherDisplay:10.37,2013-05-15 08:31:00,
2013-05-15 04:33:00,64.1,60.2,30.02,SSW,211,0.5,2.3,87,0.00,CLR,,0.00,WeatherDisplay:10.37,2013-05-15 08:33:00,
2013-05-15 04:35:00,64.1,60.2,30.02,SSW,212,0.5,3.5,87,0.00,CLR,,0.00,WeatherDisplay:10.37,2013-05-15 08:35:00,
2013-05-15 04:36:00,64.1,60.2,30.01,SW,215,1.6,2.0,87,0.00,CLR,,0.00,WeatherDisplay:10.37,2013-05-15 08:36:00,
2013-05-15 04:38:00,64.1,59.8,30.01,SSW,195,2.0,4.0,86,0.00,CLR,,0.00,WeatherDisplay:10.37,2013-05-15 08:38:00,
2013-05-15 04:40:00,64.1,59.8,30.01,SW,215,2.0,4.6,86,0.00,CLR,,0.00,WeatherDisplay:10.37,2013-05-15 08:40:00,
2013-05-15 04:42:00,64.1,60.2,30.01,SSW,210,3.3,4.0,87,0.00,CLR,,0.00,WeatherDisplay:10.37,2013-05-15 08:42:00,
2013-05-15 04:43:00,64.1,60.2,30.01,SSW,203,3.7,4.6,87,0.00,CLR,,0.00,WeatherDisplay:10.37,2013-05-15 08:43:00,
2013-05-15 04:45:00,64.2,59.9,30.01,SSW,201,3.1,5.0,86,0.00,CLR,,0.00,WeatherDisplay:10.37,2013-05-15 08:45:00,
2013-05-15 04:47:00,64.1,59.8,30.01,SSW,209,3.9,5.8,86,0.00,CLR,,0.00,WeatherDisplay:10.37,2013-05-15 08:47:00,
2013-05-15 04:48:00,64.2,60.2,30.01,SW,228,2.6,7.0,87,0.00,CLR,,0.00,WeatherDisplay:10.37,2013-05-15 08:48:00,
2013-05-15 04:49:00,64.2,60.2,30.01,SW,217,3.2,6.9,87,0.00,CLR,,0.00,WeatherDisplay:10.37,2013-05-15 08:49:00,
2013-05-15 04:51:00,64.2,60.2,30.01,SSW,198,5.1,9.2,87,0.00,CLR,,0.00,WeatherDisplay:10.37,2013-05-15 08:51:00,
2013-05-15 04:52:00,64.2,60.2,30.01,SSW,195,4.2,5.8,87,0.00,CLR,,0.00,WeatherDisplay:10.37,2013-05-15 08:52:00,
2013-05-15 04:53:00,64.2,60.2,30.01,SSW,201,4.2,8.0,87,0.00,CLR,,0.00,WeatherDisplay:10.37,2013-05-15 08:53:00,
2013-05-15 04:55:00,64.2,60.2,30.01,SSW,196,4.1,6.9,87,0.00,CLR,,0.00,WeatherDisplay:10.37,2013-05-15 08:55:00,
2013-05-15 04:56:00,64.2,60.2,30.01,SSW,213,3.2,5.8,87,0.00,CLR,,0.00,WeatherDisplay:10.37,2013-05-15 08:56:00,
2013-05-15 04:57:00,64.3,60.3,30.01,SW,217,5.8,9.2,87,0.00,CLR,,0.00,WeatherDisplay:10.37,2013-05-15 08:57:00,
2013-05-15 04:58:00,64.3,60.3,30.01,SSW,197,5.7,8.1,87,0.00,CLR,,0.00,WeatherDisplay:10.37,2013-05-15 08:58:00,
2013-05-15 04:59:00,64.3,60.3,30.01,South,190,5.7,9.2,87,0.00,CLR,,0.00,WeatherDisplay:10.37,2013-05-15 08:59:00,
2013-05-15 05:00:00,64.3,60.0,30.01,SSW,206,5.4,8.1,86,0.00,CLR,,0.00,WeatherDisplay:10.37,2013-05-15 09:00:00,
2013-05-15 05:01:00,64.3,60.3,30.01,SSW,196,4.9,6.9,87,0.00,CLR,,0.00,WeatherDisplay:10.37,2013-05-15 09:01:00,
2013-05-15 05:02:00,64.3,60.3,30.01,SSW,197,4.7,8.1,87,0.00,CLR,,0.00,WeatherDisplay:10.37,2013-05-15 09:02:00,
2013-05-15 05:04:00,64.3,60.3,30.01,SW,217,7.1,11.5,87,0.00,CLR,,0.00,WeatherDisplay:10.37,2013-05-15 09:04:00,
2013-05-15 05:05:00,64.3,60.3,30.01,SSW,207,6.8,9.2,87,0.00,CLR,,0.00,WeatherDisplay:10.37,2013-05-15 09:05:00,
2013-05-15 05:07:00,64.3,60.3,30.01,SSW,203,6.0,9.2,87,0.00,CLR,,0.00,WeatherDisplay:10.37,2013-05-15 09:07:00,
2013-05-15 05:09:00,64.3,60.3,30.01,SSW,211,6.1,10.4,87,0.00,CLR,,0.00,WeatherDisplay:10.37,2013-05-15 09:09:00,
2013-05-15 05:10:00,64.3,60.3,30.01,SSW,208,6.4,9.2,87,0.00,CLR,,0.00,WeatherDisplay:10.37,2013-05-15 09:10:00,
2013-05-15 05:12:00,64.3,60.3,30.01,SSW,205,6.4,10.0,87,0.00,CLR,,0.00,WeatherDisplay:10.37,2013-05-15 09:12:00,
2013-05-15 05:14:00,64.3,60.3,30.01,SW,219,8.4,11.5,87,0.00,CLR,,0.00,WeatherDisplay:10.37,2013-05-15 09:14:00,
2013-05-15 05:16:00,64.3,60.7,30.01,SW,226,4.5,9.2,88,0.00,CLR,,0.00,WeatherDisplay:10.37,2013-05-15 09:16:00,
2013-05-15 05:17:00,64.3,60.7,30.01,SW,228,6.0,8.1,88,0.00,CLR,,0.00,WeatherDisplay:10.37,2013-05-15 09:17:00,
2013-05-15 05:19:00,64.3,60.3,30.01,SSW,213,6.4,11.5,87,0.00,CLR,,0.00,WeatherDisplay:10.37,2013-05-15 09:19:00,
2013-05-15 05:20:00,64.3,60.3,30.01,SW,216,5.7,9.2,87,0.00,CLR,,0.00,WeatherDisplay:10.37,2013-05-15 09:20:00,
2013-05-15 05:21:00,64.3,60.3,30.01,SW,216,7.2,11.5,87,0.00,CLR,,0.00,WeatherDisplay:10.37,2013-05-15 09:21:00,
2013-05-15 05:22:00,64.3,60.3,30.01,SW,225,7.5,11.5,87,0.00,CLR,,0.00,WeatherDisplay:10.37,2013-05-15 09:22:00,
2013-05-15 05:23:00,64.3,60.3,30.01,SW,227,6.3,10.4,87,0.00,CLR,,0.00,WeatherDisplay:10.37,2013-05-15 09:23:00,
2013-05-15 05:25:00,64.3,60.3,30.01,SSW,201,4.0,8.1,87,0.00,CLR,,0.00,WeatherDisplay:10.37,2013-05-15 09:25:00,
2013-05-15 05:26:00,64.3,60.3,30.01,SSW,212,7.1,11.5,87,0.00,CLR,,0.00,WeatherDisplay:10.37,2013-05-15 09:26:00,
2013-05-15 05:27:00,64.3,60.3,30.01,WSW,242,5.8,8.1,87,0.00,CLR,,0.00,WeatherDisplay:10.37,2013-05-15 09:27:00,
2013-05-15 05:28:00,64.3,60.3,30.01,SSW,211,5.8,8.1,87,0.00,CLR,,0.00,WeatherDisplay:10.37,2013-05-15 09:28:00,
2013-05-15 05:30:00,64.3,60.3,30.02,SW,224,4.2,9.2,87,0.00,CLR,,0.00,WeatherDisplay:10.37,2013-05-15 09:30:00,
2013-05-15 05:31:00,64.3,60.3,30.02,SSW,209,5.6,9.2,87,0.00,CLR,,0.00,WeatherDisplay:10.37,2013-05-15 09:31:00,
2013-05-15 05:32:00,64.2,60.6,30.02,SSW,197,3.6,6.9,88,0.00,CLR,,0.00,WeatherDisplay:10.37,2013-05-15 09:32:00,
2013-05-15 05:33:00,64.2,60.6,30.02,SW,214,4.1,6.9,88,0.00,CLR,,0.00,WeatherDisplay:10.37,2013-05-15 09:33:00,
2013-05-15 05:35:00,64.2,60.2,30.02,SW,226,5.9,8.0,87,0.00,CLR,,0.00,WeatherDisplay:10.37,2013-05-15 09:35:00,
2013-05-15 05:36:00,64.1,60.2,30.02,SW,232,2.9,10.4,87,0.00,CLR,,0.00,WeatherDisplay:10.37,2013-05-15 09:36:00,
2013-05-15 05:38:00,64.1,60.2,30.02,SSW,201,4.0,8.1,87,0.00,CLR,,0.00,WeatherDisplay:10.37,2013-05-15 09:38:00,
2013-05-15 05:40:00,64.1,60.2,30.02,SW,216,2.7,8.1,87,0.00,CLR,,0.00,WeatherDisplay:10.37,2013-05-15 09:40:00,
2013-05-15 05:42:00,64.1,60.5,30.02,SSW,210,2.5,5.8,88,0.00,CLR,,0.00,WeatherDisplay:10.37,2013-05-15 09:42:00,
2013-05-15 05:43:00,64.1,60.2,30.02,SSW,206,1.6,4.6,87,0.00,CLR,,0.00,WeatherDisplay:10.37,2013-05-15 09:43:00,
2013-05-15 05:45:00,64.0,60.1,30.02,South,189,2.7,6.9,87,0.00,CLR,,0.00,WeatherDisplay:10.37,2013-05-15 09:45:00,
2013-05-15 05:47:00,64.0,60.1,30.02,SSW,194,1.1,3.5,87,0.00,CLR,,0.00,WeatherDisplay:10.37,2013-05-15 09:47:00,
2013-05-15 05:48:00,64.0,60.4,30.03,SSW,213,0.4,3.5,88,0.00,CLR,,0.00,WeatherDisplay:10.37,2013-05-15 09:48:00,
2013-05-15 05:49:00,64.0,60.1,30.03,SW,234,2.0,5.0,87,0.00,CLR,,0.00,WeatherDisplay:10.37,2013-05-15 09:49:00,
2013-05-15 05:50:00,63.9,60.3,30.03,SW,216,1.5,3.5,88,0.00,CLR,,0.00,WeatherDisplay:10.37,2013-05-15 09:50:00,
2013-05-15 05:51:00,63.9,60.3,30.03,SW,218,0.6,3.5,88,0.00,CLR,,0.00,WeatherDisplay:10.37,2013-05-15 09:51:00,
2013-05-15 05:52:00,63.9,60.0,30.03,SSW,205,2.0,4.6,87,0.00,CLR,,0.00,WeatherDisplay:10.37,2013-05-15 09:52:00,
2013-05-15 05:53:00,63.9,60.0,30.03,SSW,206,0.0,3.5,87,0.00,CLR,,0.00,WeatherDisplay:10.37,2013-05-15 09:53:00,
2013-05-15 05:54:00,63.9,60.3,30.03,SSW,205,0.1,1.1,88,0.00,CLR,,0.00,WeatherDisplay:10.37,2013-05-15 09:54:00,
2013-05-15 05:56:00,63.8,60.2,30.03,SW,215,0.8,3.5,88,0.00,CLR,,0.00,WeatherDisplay:10.37,2013-05-15 09:56:00,
2013-05-15 05:57:00,63.7,60.1,30.03,SW,215,0.3,3.5,88,0.00,CLR,,0.00,WeatherDisplay:10.37,2013-05-15 09:57:00,
2013-05-15 05:59:00,63.7,60.1,30.03,SW,225,0.7,3.5,88,0.00,CLR,,0.00,WeatherDisplay:10.37,2013-05-15 09:59:00,
2013-05-15 06:01:00,63.6,60.0,30.03,SSW,210,0.0,3.5,88,0.00,CLR,,0.00,WeatherDisplay:10.37,2013-05-15 10:01:00,
2013-05-15 06:02:00,63.6,60.0,30.03,SSW,210,0.0,1.1,88,0.00,CLR,,0.00,WeatherDisplay:10.37,2013-05-15 10:02:00,
2013-05-15 06:04:00,63.6,60.0,30.03,SSW,210,0.2,1.1,88,0.00,CLR,,0.00,WeatherDisplay:10.37,2013-05-15 10:04:00,
2013-05-15 06:06:00,63.5,59.9,30.03,SSW,209,0.4,2.3,88,0.00,CLR,,0.00,WeatherDisplay:10.37,2013-05-15 10:06:00,
2013-05-15 06:07:00,63.5,59.9,30.03,SSW,210,0.4,2.3,88,0.00,CLR,,0.00,WeatherDisplay:10.37,2013-05-15 10:07:00,
2013-05-15 06:09:00,63.4,59.8,30.03,SSW,209,0.6,1.1,88,0.00,CLR,,0.00,WeatherDisplay:10.37,2013-05-15 10:09:00,
2013-05-15 06:11:00,63.3,60.0,30.03,SSW,210,1.0,3.5,89,0.00,CLR,,0.00,WeatherDisplay:10.37,2013-05-15 10:11:00,
2013-05-15 06:12:00,63.3,60.0,30.03,SW,224,1.0,3.0,89,0.00,CLR,,0.00,WeatherDisplay:10.37,2013-05-15 10:12:00,
2013-05-15 06:14:00,63.3,60.0,30.03,SSW,209,2.6,4.6,89,0.00,CLR,,0.00,WeatherDisplay:10.37,2013-05-15 10:14:00,
2013-05-15 06:16:00,63.2,59.9,30.03,SSW,199,1.3,4.6,89,0.00,CLR,,0.00,WeatherDisplay:10.37,2013-05-15 10:16:00,
2013-05-15 06:17:00,63.2,59.9,30.03,SSW,196,1.5,3.5,89,0.00,CLR,,0.00,WeatherDisplay:10.37,2013-05-15 10:17:00,
2013-05-15 06:19:00,63.2,59.9,30.03,SSW,203,1.8,3.5,89,0.00,CLR,,0.00,WeatherDisplay:10.37,2013-05-15 10:19:00,
2013-05-15 06:21:00,63.1,59.8,30.04,SSW,206,0.8,2.3,89,0.00,CLR,,0.00,WeatherDisplay:10.37,2013-05-15 10:21:00,
2013-05-15 06:22:00,63.1,59.8,30.04,SW,215,1.6,3.0,89,0.00,CLR,,0.00,WeatherDisplay:10.37,2013-05-15 10:22:00,
2013-05-15 06:23:00,63.1,59.8,30.04,SW,221,3.2,4.6,89,0.00,CLR,,0.00,WeatherDisplay:10.37,2013-05-15 10:23:00,
2013-05-15 06:24:00,63.1,59.8,30.04,SSW,198,3.2,3.5,89,0.00,CLR,,0.00,WeatherDisplay:10.37,2013-05-15 10:24:00,
2013-05-15 06:25:00,63.1,59.8,30.04,SSW,198,2.5,4.6,89,0.00,CLR,,0.00,WeatherDisplay:10.37,2013-05-15 10:25:00,
2013-05-15 06:27:00,63.0,59.7,30.04,South,191,3.7,4.6,89,0.00,CLR,,0.00,WeatherDisplay:10.37,2013-05-15 10:27:00,
2013-05-15 06:28:00,63.0,59.7,30.04,SSW,194,3.2,4.6,89,0.00,CLR,,0.00,WeatherDisplay:10.37,2013-05-15 10:28:00,
2013-05-15 06:29:00,63.0,59.7,30.04,SSW,198,3.3,5.0,89,0.00,CLR,,0.00,WeatherDisplay:10.37,2013-05-15 10:29:00,
2013-05-15 06:30:00,63.0,59.7,30.04,SSW,192,3.6,4.6,89,0.00,CLR,,0.00,WeatherDisplay:10.37,2013-05-15 10:30:00,
2013-05-15 06:32:00,62.9,59.9,30.04,SW,214,3.5,5.8,90,0.00,CLR,,0.00,WeatherDisplay:10.37,2013-05-15 10:32:00,
2013-05-15 06:33:00,62.9,59.6,30.04,SSW,203,3.2,5.8,89,0.00,CLR,,0.00,WeatherDisplay:10.37,2013-05-15 10:33:00,
2013-05-15 06:35:00,62.9,59.6,30.04,SSW,205,3.2,6.0,89,0.00,CLR,,0.00,WeatherDisplay:10.37,2013-05-15 10:35:00,
2013-05-15 06:37:00,62.8,59.8,30.04,SSW,207,3.0,3.5,90,0.00,CLR,,0.00,WeatherDisplay:10.37,2013-05-15 10:37:00,
2013-05-15 06:38:00,62.8,59.8,30.04,SSW,192,3.7,4.6,90,0.00,CLR,,0.00,WeatherDisplay:10.37,2013-05-15 10:38:00,
2013-05-15 06:40:00,62.8,59.8,30.04,SSW,213,4.2,6.0,90,0.00,CLR,,0.00,WeatherDisplay:10.37,2013-05-15 10:40:00,
2013-05-15 06:42:00,62.8,59.8,30.04,SSW,194,2.6,4.6,90,0.00,CLR,,0.00,WeatherDisplay:10.37,2013-05-15 10:42:00,
2013-05-15 06:43:00,62.8,59.8,30.05,South,187,2.6,4.0,90,0.00,CLR,,0.00,WeatherDisplay:10.37,2013-05-15 10:43:00,
2013-05-15 06:45:00,62.8,59.8,30.05,SSW,194,3.3,4.6,90,0.00,CLR,,0.00,WeatherDisplay:10.37,2013-05-15 10:45:00,
2013-05-15 06:47:00,62.7,59.4,30.05,SSW,198,3.2,3.5,89,0.00,CLR,,0.00,WeatherDisplay:10.37,2013-05-15 10:47:00,
2013-05-15 06:48:00,62.7,59.7,30.05,SSW,198,2.1,5.8,90,0.00,CLR,,0.00,WeatherDisplay:10.37,2013-05-15 10:48:00,
2013-05-15 06:50:00,62.7,59.7,30.05,SSW,204,1.5,4.0,90,0.00,CLR,,0.00,WeatherDisplay:10.37,2013-05-15 10:50:00,
2013-05-15 06:52:00,62.8,59.5,30.05,South,189,2.8,4.6,89,0.00,CLR,,0.00,WeatherDisplay:10.37,2013-05-15 10:52:00,
2013-05-15 06:53:00,62.8,59.2,30.05,SSW,200,2.7,4.6,88,0.00,CLR,,0.00,WeatherDisplay:10.37,2013-05-15 10:53:00,
2013-05-15 06:54:00,62.8,59.5,30.05,SSW,202,3.7,4.6,89,0.00,CLR,,0.00,WeatherDisplay:10.37,2013-05-15 10:54:00,
2013-05-15 06:55:00,62.9,59.3,30.05,SSW,193,3.9,5.8,88,0.00,CLR,,0.00,WeatherDisplay:10.37,2013-05-15 10:55:00,
2013-05-15 06:58:00,63.0,59.7,30.05,SSW,203,3.1,6.9,89,0.00,CLR,,0.00,WeatherDisplay:10.37,2013-05-15 10:58:00,
2013-05-15 06:59:00,63.1,59.5,30.05,SSW,198,3.5,6.9,88,0.00,CLR,,0.00,WeatherDisplay:10.37,2013-05-15 10:59:00,
2013-05-15 07:00:00,63.2,59.6,30.05,SSW,200,4.6,8.1,88,0.00,CLR,,0.00,WeatherDisplay:10.37,2013-05-15 11:00:00,
2013-05-15 07:03:00,63.3,59.7,30.05,SW,217,3.0,5.8,88,0.00,CLR,,0.00,WeatherDisplay:10.37,2013-05-15 11:03:00,
2013-05-15 07:04:00,63.3,59.7,30.05,SSW,203,3.5,6.9,88,0.00,CLR,,0.00,WeatherDisplay:10.37,2013-05-15 11:04:00,
2013-05-15 07:05:00,63.3,60.0,30.05,SSW,196,3.1,7.0,89,0.00,CLR,,0.00,WeatherDisplay:10.37,2013-05-15 11:05:00,
2013-05-15 07:08:00,63.4,59.8,30.05,SSW,200,3.1,8.1,88,0.00,CLR,,0.00,WeatherDisplay:10.37,2013-05-15 11:08:00,
2013-05-15 07:09:00,63.4,59.8,30.05,SSW,210,2.2,5.0,88,0.00,CLR,,0.00,WeatherDisplay:10.37,2013-05-15 11:09:00,
2013-05-15 07:10:00,63.4,59.8,30.05,SW,231,4.1,4.6,88,0.00,CLR,,0.00,WeatherDisplay:10.37,2013-05-15 11:10:00,
2013-05-15 07:13:00,63.5,59.9,30.05,SSW,212,3.7,10.4,88,0.00,CLR,,0.00,WeatherDisplay:10.37,2013-05-15 11:13:00,
2013-05-15 07:14:00,63.5,59.9,30.05,SSW,206,4.0,5.8,88,0.00,CLR,,0.00,WeatherDisplay:10.37,2013-05-15 11:14:00,
2013-05-15 07:16:00,63.6,59.7,30.05,SSW,209,4.4,9.2,87,0.00,CLR,,0.00,WeatherDisplay:10.37,2013-05-15 11:16:00,
2013-05-15 07:18:00,63.7,60.1,30.06,SW,223,4.5,5.8,88,0.00,CLR,,0.00,WeatherDisplay:10.37,2013-05-15 11:18:00,
2013-05-15 07:19:00,63.7,60.1,30.05,South,183,4.4,6.9,88,0.00,CLR,,0.00,WeatherDisplay:10.37,2013-05-15 11:19:00,
2013-05-15 07:20:00,63.7,60.1,30.05,SW,234,3.0,6.9,88,0.00,CLR,,0.00,WeatherDisplay:10.37,2013-05-15 11:20:00,
2013-05-15 07:21:00,63.8,60.2,30.06,SW,214,1.3,5.8,88,0.00,CLR,,0.00,WeatherDisplay:10.37,2013-05-15 11:21:00,
2013-05-15 07:24:00,64.0,60.1,30.06,SSW,209,2.8,4.6,87,0.00,CLR,,0.00,WeatherDisplay:10.37,2013-05-15 11:24:00,
2013-05-15 07:26:00,63.9,60.0,30.06,SSW,213,3.5,4.6,87,0.00,CLR,,0.00,WeatherDisplay:10.37,2013-05-15 11:26:00,
2013-05-15 07:30:00,64.1,60.5,30.06,SW,224,1.3,3.5,88,0.00,CLR,,0.00,WeatherDisplay:10.37,2013-05-15 11:30:00,
2013-05-15 07:31:00,64.1,60.2,30.06,SSW,203,2.4,4.6,87,0.00,CLR,,0.00,WeatherDisplay:10.37,2013-05-15 11:31:00,
2013-05-15 07:32:00,64.1,60.2,30.06,SW,222,2.7,3.5,87,0.00,CLR,,0.00,WeatherDisplay:10.37,2013-05-15 11:32:00,
2013-05-15 07:35:00,64.2,60.2,30.06,SSW,205,2.4,4.6,87,0.00,CLR,,0.00,WeatherDisplay:10.37,2013-05-15 11:35:00,
2013-05-15 07:36:00,64.3,60.3,30.06,SW,230,3.2,3.5,87,0.00,CLR,,0.00,WeatherDisplay:10.37,2013-05-15 11:36:00,
2013-05-15 07:37:00,64.3,60.3,30.06,SW,228,0.6,4.6,87,0.00,CLR,,0.00,WeatherDisplay:10.37,2013-05-15 11:37:00,
2013-05-15 07:39:00,64.4,60.4,30.06,SW,234,3.2,5.0,87,0.00,CLR,,0.00,WeatherDisplay:10.37,2013-05-15 11:39:00,
2013-05-15 07:40:00,64.4,60.4,30.06,SSW,204,3.8,5.0,87,0.00,CLR,,0.00,WeatherDisplay:10.37,2013-05-15 11:40:00,
2013-05-15 07:41:00,64.4,60.4,30.06,SSW,208,1.4,4.6,87,0.00,CLR,,0.00,WeatherDisplay:10.37,2013-05-15 11:41:00,
2013-05-15 07:43:00,64.5,60.5,30.06,SW,221,2.6,3.5,87,0.00,CLR,,0.00,WeatherDisplay:10.37,2013-05-15 11:43:00,
2013-05-15 07:46:00,64.6,60.6,30.06,SW,220,0.5,3.5,87,0.00,CLR,,0.00,WeatherDisplay:10.37,2013-05-15 11:46:00,
2013-05-15 07:47:00,64.6,61.0,30.06,SSW,209,1.0,3.5,88,0.00,CLR,,0.00,WeatherDisplay:10.37,2013-05-15 11:47:00,
2013-05-15 07:48:00,64.6,60.6,30.06,South,191,0.6,2.3,87,0.00,CLR,,0.00,WeatherDisplay:10.37,2013-05-15 11:48:00,
2013-05-15 07:51:00,64.7,60.7,30.06,SSW,207,2.3,3.5,87,0.00,CLR,,0.00,WeatherDisplay:10.37,2013-05-15 11:51:00,
2013-05-15 07:52:00,64.7,60.7,30.06,SSW,198,1.2,3.5,87,0.00,CLR,,0.00,WeatherDisplay:10.37,2013-05-15 11:52:00,
2013-05-15 07:54:00,64.8,60.8,30.07,South,191,0.5,3.5,87,0.00,CLR,,0.00,WeatherDisplay:10.37,2013-05-15 11:54:00,
2013-05-15 07:56:00,64.9,60.6,30.06,SSW,193,0.3,5.8,86,0.00,CLR,,0.00,WeatherDisplay:10.37,2013-05-15 11:56:00,
2013-05-15 07:58:00,65.0,60.7,30.07,SSW,212,1.6,5.0,86,0.00,CLR,,0.00,WeatherDisplay:10.37,2013-05-15 11:58:00,
2013-05-15 07:59:00,65.0,60.7,30.07,WSW,246,4.1,6.9,86,0.00,CLR,,0.00,WeatherDisplay:10.37,2013-05-15 11:59:00,
2013-05-15 08:01:00,65.1,60.8,30.06,SSW,195,3.2,5.8,86,0.00,CLR,,0.00,WeatherDisplay:10.37,2013-05-15 12:01:00,
2013-05-15 08:03:00,65.2,60.9,30.07,SW,214,3.5,4.6,86,0.00,CLR,,0.00,WeatherDisplay:10.37,2013-05-15 12:03:00,
2013-05-15 08:04:00,65.2,60.9,30.07,SW,230,4.7,8.1,86,0.00,CLR,,0.00,WeatherDisplay:10.37,2013-05-15 12:04:00,
2013-05-15 08:06:00,65.4,61.1,30.07,SSW,203,3.1,8.1,86,0.00,CLR,,0.00,WeatherDisplay:10.37,2013-05-15 12:06:00,
2013-05-15 08:08:00,65.4,61.1,30.07,SSW,199,4.4,9.2,86,0.00,CLR,,0.00,WeatherDisplay:10.37,2013-05-15 12:08:00,
2013-05-15 08:09:00,65.5,61.2,30.07,SW,232,4.7,8.1,86,0.00,CLR,,0.00,WeatherDisplay:10.37,2013-05-15 12:09:00,
2013-05-15 08:12:00,65.6,61.3,30.07,SW,223,4.0,6.9,86,0.00,CLR,,0.00,WeatherDisplay:10.37,2013-05-15 12:12:00,
2013-05-15 08:15:00,65.7,61.4,30.07,South,185,0.9,3.5,86,0.00,CLR,,0.00,WeatherDisplay:10.37,2013-05-15 12:15:00,
2013-05-15 08:16:00,65.8,61.5,30.07,SW,228,1.3,3.5,86,0.00,CLR,,0.00,WeatherDisplay:10.37,2013-05-15 12:16:00,
2013-05-15 08:19:00,65.9,61.6,30.07,SSW,208,3.0,6.9,86,0.00,CLR,,0.00,WeatherDisplay:10.37,2013-05-15 12:19:00,
2013-05-15 08:20:00,65.9,61.6,30.07,SSW,193,2.7,4.6,86,0.00,CLR,,0.00,WeatherDisplay:10.37,2013-05-15 12:20:00,
2013-05-15 08:21:00,66.0,61.7,30.07,SSW,196,2.3,4.6,86,0.00,CLR,,0.00,WeatherDisplay:10.37,2013-05-15 12:21:00,
2013-05-15 08:25:00,66.1,61.5,30.08,SSW,211,6.1,11.5,85,0.00,CLR,,0.00,WeatherDisplay:10.37,2013-05-15 12:25:00,
2013-05-15 08:26:00,66.2,61.6,30.07,SW,222,10.4,16.1,85,0.00,CLR,,0.00,WeatherDisplay:10.37,2013-05-15 12:26:00,
2013-05-15 08:30:00,66.3,61.3,30.07,West,281,6.2,9.2,84,0.00,CLR,,0.00,WeatherDisplay:10.37,2013-05-15 12:30:00,
2013-05-15 08:31:00,66.4,61.8,30.08,SSW,201,5.6,15.0,85,0.00,CLR,,0.00,WeatherDisplay:10.37,2013-05-15 12:31:00,
2013-05-15 08:33:00,66.5,61.5,30.07,SW,219,6.9,15.0,84,0.00,CLR,,0.00,WeatherDisplay:10.37,2013-05-15 12:33:00,
2013-05-15 08:36:00,66.6,61.6,30.07,SSW,211,6.1,11.5,84,0.00,CLR,,0.00,WeatherDisplay:10.37,2013-05-15 12:36:00,
2013-05-15 08:39:00,66.8,61.5,30.07,SW,230,8.7,17.3,83,0.00,CLR,,0.00,WeatherDisplay:10.37,2013-05-15 12:39:00,
2013-05-15 08:41:00,66.9,61.9,30.08,SW,217,6.8,13.8,84,0.00,CLR,,0.00,WeatherDisplay:10.37,2013-05-15 12:41:00,
2013-05-15 08:44:00,67.1,62.1,30.08,SW,233,3.5,9.2,84,0.00,CLR,,0.00,WeatherDisplay:10.37,2013-05-15 12:44:00,
2013-05-15 08:49:00,67.4,61.7,30.08,SW,216,6.4,10.4,82,0.00,CLR,,0.00,WeatherDisplay:10.37,2013-05-15 12:49:00,
2013-05-15 08:50:00,67.4,61.7,30.08,SSW,210,7.0,11.5,82,0.00,CLR,,0.00,WeatherDisplay:10.37,2013-05-15 12:50:00,
2013-05-15 08:51:00,67.5,61.8,30.08,SSW,212,8.2,11.5,82,0.00,CLR,,0.00,WeatherDisplay:10.37,2013-05-15 12:51:00,
2013-05-15 08:56:00,67.7,62.0,30.08,SSW,210,7.3,13.0,82,0.00,CLR,,0.00,WeatherDisplay:10.37,2013-05-15 12:56:00,
2013-05-15 08:57:00,67.8,62.1,30.08,SW,229,8.4,13.8,82,0.00,CLR,,0.00,WeatherDisplay:10.37,2013-05-15 12:57:00,
2013-05-15 09:01:00,67.9,61.5,30.08,SW,215,9.5,13.8,80,0.00,CLR,,0.00,WeatherDisplay:10.37,2013-05-15 13:01:00,
2013-05-15 09:06:00,68.1,61.7,30.08,SW,222,8.0,14.0,80,0.00,CLR,,0.00,WeatherDisplay:10.37,2013-05-15 13:06:00,
2013-05-15 09:12:00,68.4,62.0,30.08,WSW,245,4.9,10.4,80,0.00,CLR,,0.00,WeatherDisplay:10.37,2013-05-15 13:12:00,
2013-05-15 09:13:00,68.5,62.4,30.08,SW,217,3.8,10.0,81,0.00,CLR,,0.00,WeatherDisplay:10.37,2013-05-15 13:13:00,
2013-05-15 09:17:00,68.7,62.3,30.08,SW,229,6.9,11.5,80,0.00,CLR,,0.00,WeatherDisplay:10.37,2013-05-15 13:17:00,
2013-05-15 09:19:00,68.8,62.4,30.08,SSW,195,4.1,6.9,80,0.00,CLR,,0.00,WeatherDisplay:10.37,2013-05-15 13:19:00,
2013-05-15 09:23:00,69.0,62.6,30.08,SW,227,5.0,8.1,80,0.00,CLR,,0.00,WeatherDisplay:10.37,2013-05-15 13:23:00,
2013-05-15 09:24:00,69.1,62.7,30.08,WSW,248,5.8,10.0,80,0.00,CLR,,0.00,WeatherDisplay:10.37,2013-05-15 13:24:00,
2013-05-15 09:25:00,69.1,62.3,30.08,West,263,8.1,11.5,79,0.00,CLR,,0.00,WeatherDisplay:10.37,2013-05-15 13:25:00,
2013-05-15 09:28:00,69.3,62.5,30.08,SSW,200,2.4,7.0,79,0.00,CLR,,0.00,WeatherDisplay:10.37,2013-05-15 13:28:00,
2013-05-15 09:30:00,69.4,63.0,30.08,SW,222,2.0,3.5,80,0.00,CLR,,0.00,WeatherDisplay:10.37,2013-05-15 13:30:00,
2013-05-15 09:34:00,69.7,62.9,30.08,WSW,248,4.3,5.8,79,0.00,CLR,,0.00,WeatherDisplay:10.37,2013-05-15 13:34:00,
2013-05-15 09:35:00,69.8,63.0,30.08,SW,234,5.0,9.2,79,0.00,CLR,,0.00,WeatherDisplay:10.37,2013-05-15 13:35:00,
2013-05-15 09:36:00,69.8,62.3,30.08,WSW,237,6.5,11.5,77,0.00,CLR,,0.00,WeatherDisplay:10.37,2013-05-15 13:36:00,
2013-05-15 09:39:00,69.9,62.0,30.08,SSW,193,6.4,11.5,76,0.00,CLR,,0.00,WeatherDisplay:10.37,2013-05-15 13:39:00,
2013-05-15 09:40:00,70.0,62.1,30.08,SW,216,6.6,11.5,76,0.00,CLR,,0.00,WeatherDisplay:10.37,2013-05-15 13:40:00,
2013-05-15 09:42:00,70.1,62.2,30.08,WSW,247,8.0,11.5,76,0.00,CLR,,0.00,WeatherDisplay:10.37,2013-05-15 13:42:00,
2013-05-15 09:46:00,70.3,62.4,30.08,SSW,204,5.9,10.4,76,0.00,CLR,,0.00,WeatherDisplay:10.37,2013-05-15 13:46:00,
2013-05-15 09:47:00,70.4,62.5,30.08,SW,215,6.7,11.5,76,0.00,CLR,,0.00,WeatherDisplay:10.37,2013-05-15 13:47:00,
2013-05-15 09:48:00,70.4,62.5,30.08,SW,236,8.2,11.5,76,0.00,CLR,,0.00,WeatherDisplay:10.37,2013-05-15 13:48:00,
2013-05-15 09:51:00,70.6,62.3,30.08,WSW,249,6.8,11.5,75,0.00,CLR,,0.00,WeatherDisplay:10.37,2013-05-15 13:51:00,
2013-05-15 09:52:00,70.7,62.4,30.08,SSW,207,10.9,13.8,75,0.00,CLR,,0.00,WeatherDisplay:10.37,2013-05-15 13:52:00,
2013-05-15 09:53:00,70.7,62.0,30.08,SW,227,11.7,15.0,74,0.00,CLR,,0.00,WeatherDisplay:10.37,2013-05-15 13:53:00,
2013-05-15 09:57:00,70.9,63.0,30.08,SW,215,5.3,13.0,76,0.00,CLR,,0.00,WeatherDisplay:10.37,2013-05-15 13:57:00,
2013-05-15 09:59:00,71.1,62.4,30.08,SW,221,8.9,17.3,74,0.00,CLR,,0.00,WeatherDisplay:10.37,2013-05-15 13:59:00,
2013-05-15 10:02:00,71.3,62.2,30.08,SW,220,7.8,11.5,73,0.00,CLR,,0.00,WeatherDisplay:10.37,2013-05-15 14:02:00,
2013-05-15 10:03:00,71.3,62.6,30.08,SSW,210,6.2,11.5,74,0.00,CLR,,0.00,WeatherDisplay:10.37,2013-05-15 14:03:00,
2013-05-15 10:05:00,71.5,63.2,30.08,SSW,198,4.7,11.0,75,0.00,CLR,,0.00,WeatherDisplay:10.37,2013-05-15 14:05:00,
2013-05-15 10:08:00,71.6,63.3,30.08,SSW,197,4.5,8.1,75,0.00,CLR,,0.00,WeatherDisplay:10.37,2013-05-15 14:08:00,
2013-05-15 10:09:00,71.7,62.6,30.08,SSW,210,8.4,12.0,73,0.00,CLR,,0.00,WeatherDisplay:10.37,2013-05-15 14:09:00,
2013-05-15 10:11:00,71.8,62.7,30.08,WSW,251,9.8,18.4,73,0.00,CLR,,0.00,WeatherDisplay:10.37,2013-05-15 14:11:00,
2013-05-15 10:13:00,71.9,62.8,30.08,SW,218,9.0,13.8,73,0.00,CLR,,0.00,WeatherDisplay:10.37,2013-05-15 14:13:00,
2013-05-15 10:15:00,72.0,62.9,30.08,SSW,209,8.7,13.8,73,0.00,CLR,,0.00,WeatherDisplay:10.37,2013-05-15 14:15:00,
2013-05-15 10:16:00,72.0,62.5,30.08,SSW,209,9.8,13.8,72,0.00,CLR,,0.00,WeatherDisplay:10.37,2013-05-15 14:16:00,
2013-05-15 10:18:00,72.1,62.6,30.08,SSW,197,9.8,19.6,72,0.00,CLR,,0.00,WeatherDisplay:10.37,2013-05-15 14:18:00,
2013-05-15 10:22:00,72.3,63.2,30.08,WSW,250,6.5,10.4,73,0.00,CLR,,0.00,WeatherDisplay:10.37,2013-05-15 14:22:00,
2013-05-15 10:24:00,72.4,63.3,30.08,SW,235,7.2,10.4,73,0.00,CLR,,0.00,WeatherDisplay:10.37,2013-05-15 14:24:00,
2013-05-15 10:27:00,72.7,63.1,30.08,SW,235,7.0,15.0,72,0.00,CLR,,0.00,WeatherDisplay:10.37,2013-05-15 14:27:00,
2013-05-15 10:28:00,72.7,63.1,30.07,WSW,244,7.5,11.5,72,0.00,CLR,,0.00,WeatherDisplay:10.37,2013-05-15 14:28:00,
2013-05-15 10:30:00,72.8,62.4,30.08,SW,230,8.1,15.0,70,0.00,CLR,,0.00,WeatherDisplay:10.37,2013-05-15 14:30:00,
2013-05-15 10:34:00,72.9,63.3,30.08,SW,227,6.6,11.5,72,0.00,CLR,,0.00,WeatherDisplay:10.37,2013-05-15 14:34:00,
2013-05-15 10:36:00,73.0,62.2,30.07,SW,234,8.5,13.8,69,0.00,CLR,,0.00,WeatherDisplay:10.37,2013-05-15 14:36:00,
2013-05-15 10:39:00,73.2,63.2,30.07,SSW,206,5.8,11.5,71,0.00,CLR,,0.00,WeatherDisplay:10.37,2013-05-15 14:39:00,
2013-05-15 10:42:00,73.3,63.7,30.07,South,190,6.1,10.4,72,0.00,CLR,,0.00,WeatherDisplay:10.37,2013-05-15 14:42:00,
2013-05-15 10:44:00,73.4,62.6,30.07,SSW,207,9.4,13.8,69,0.00,CLR,,0.00,WeatherDisplay:10.37,2013-05-15 14:44:00,
2013-05-15 10:47:00,73.6,63.2,30.07,SW,226,7.0,13.8,70,0.00,CLR,,0.00,WeatherDisplay:10.37,2013-05-15 14:47:00,
2013-05-15 10:50:00,73.8,63.4,30.07,SSW,205,3.2,10.4,70,0.00,CLR,,0.00,WeatherDisplay:10.37,2013-05-15 14:50:00,
2013-05-15 10:52:00,74.0,62.8,30.07,SSW,192,10.2,14.0,68,0.00,CLR,,0.00,WeatherDisplay:10.37,2013-05-15 14:52:00,
2013-05-15 10:53:00,74.0,63.2,30.07,SSW,199,8.9,12.7,69,0.00,CLR,,0.00,WeatherDisplay:10.37,2013-05-15 14:53:00,
2013-05-15 10:55:00,74.1,62.9,30.07,SW,220,8.4,12.7,68,0.00,CLR,,0.00,WeatherDisplay:10.37,2013-05-15 14:55:00,
2013-05-15 10:56:00,74.2,63.8,30.07,SW,236,3.2,13.8,70,0.00,CLR,,0.00,WeatherDisplay:10.37,2013-05-15 14:56:00,
2013-05-15 10:58:00,74.3,63.9,30.07,SW,223,7.5,11.5,70,0.00,CLR,,0.00,WeatherDisplay:10.37,2013-05-15 14:58:00,
2013-05-15 10:59:00,74.4,63.1,30.07,SW,231,7.8,11.5,68,0.00,CLR,,0.00,WeatherDisplay:10.37,2013-05-15 14:59:00,
2013-05-15 11:02:00,74.6,63.3,30.07,SW,220,8.7,13.8,68,0.00,CLR,,0.00,WeatherDisplay:10.37,2013-05-15 15:02:00,
2013-05-15 11:04:00,74.7,63.4,30.07,WSW,238,6.1,12.7,68,0.00,CLR,,0.00,WeatherDisplay:10.37,2013-05-15 15:04:00,
2013-05-15 11:07:00,74.8,63.5,30.07,SSW,198,8.0,16.1,68,0.00,CLR,,0.00,WeatherDisplay:10.37,2013-05-15 15:07:00,
2013-05-15 11:08:00,75.0,63.7,30.07,SW,225,8.6,13.0,68,0.00,CLR,,0.00,WeatherDisplay:10.37,2013-05-15 15:08:00,
2013-05-15 11:09:00,75.0,63.3,30.07,SW,227,9.0,16.0,67,0.00,CLR,,0.00,WeatherDisplay:10.37,2013-05-15 15:09:00,
2013-05-15 11:10:00,75.0,63.3,30.07,SW,228,7.0,12.7,67,0.00,CLR,,0.00,WeatherDisplay:10.37,2013-05-15 15:10:00,
2013-05-15 11:13:00,75.2,63.9,30.07,WSW,255,7.3,16.1,68,0.00,CLR,,0.00,WeatherDisplay:10.37,2013-05-15 15:13:00,
2013-05-15 11:14:00,75.3,64.0,30.07,WSW,237,8.3,13.0,68,0.00,CLR,,0.00,WeatherDisplay:10.37,2013-05-15 15:14:00,
2013-05-15 11:18:00,75.4,64.1,30.07,SSW,194,6.0,10.4,68,0.00,CLR,,0.00,WeatherDisplay:10.37,2013-05-15 15:18:00,
2013-05-15 11:19:00,75.5,63.8,30.07,SW,236,7.0,16.0,67,0.00,CLR,,0.00,WeatherDisplay:10.37,2013-05-15 15:19:00,
2013-05-15 11:23:00,75.6,63.9,30.07,WSW,256,6.4,10.4,67,0.00,CLR,,0.00,WeatherDisplay:10.37,2013-05-15 15:23:00,
2013-05-15 11:24:00,75.7,64.4,30.07,SSW,211,5.4,10.4,68,0.00,CLR,,0.00,WeatherDisplay:10.37,2013-05-15 15:24:00,
2013-05-15 11:29:00,76.0,63.4,30.07,WSW,252,5.8,11.5,65,0.00,CLR,,0.00,WeatherDisplay:10.37,2013-05-15 15:29:00,
2013-05-15 11:33:00,76.3,64.5,30.06,WSW,244,4.8,11.0,67,0.00,CLR,,0.00,WeatherDisplay:10.37,2013-05-15 15:33:00,
2013-05-15 11:34:00,76.3,64.1,30.06,SSW,209,6.6,11.5,66,0.00,CLR,,0.00,WeatherDisplay:10.37,2013-05-15 15:34:00,
2013-05-15 11:35:00,76.4,63.8,30.07,WSW,253,6.3,9.2,65,0.00,CLR,,0.00,WeatherDisplay:10.37,2013-05-15 15:35:00,
2013-05-15 11:38:00,76.7,64.9,30.06,SW,225,4.1,8.1,67,0.00,CLR,,0.00,WeatherDisplay:10.37,2013-05-15 15:38:00,
2013-05-15 11:39:00,76.8,65.4,30.06,SSW,197,2.1,4.6,68,0.00,CLR,,0.00,WeatherDisplay:10.37,2013-05-15 15:39:00,
2013-05-15 11:40:00,76.9,66.0,30.06,SSE,155,0.7,4.6,69,0.00,CLR,,0.00,WeatherDisplay:10.37,2013-05-15 15:40:00,
2013-05-15 11:43:00,77.3,64.6,30.06,SW,235,4.7,8.1,65,0.00,CLR,,0.00,WeatherDisplay:10.37,2013-05-15 15:43:00,
2013-05-15 11:44:00,77.4,65.6,30.06,SW,226,5.4,9.2,67,0.00,CLR,,0.00,WeatherDisplay:10.37,2013-05-15 15:44:00,
2013-05-15 11:45:00,77.5,65.7,30.06,WSW,244,4.0,9.2,67,0.00,CLR,,0.00,WeatherDisplay:10.37,2013-05-15 15:45:00,
2013-05-15 11:47:00,77.6,64.9,30.06,SW,235,6.3,9.2,65,0.00,CLR,,0.00,WeatherDisplay:10.37,2013-05-15 15:47:00,
2013-05-15 11:48:00,77.7,64.5,30.06,WSW,244,7.0,9.2,64,0.00,CLR,,0.00,WeatherDisplay:10.37,2013-05-15 15:48:00,
2013-05-15 11:50:00,77.7,64.5,30.06,WSW,241,4.7,8.1,64,0.00,CLR,,0.00,WeatherDisplay:10.37,2013-05-15 15:50:00,
2013-05-15 11:51:00,77.7,63.6,30.06,WSW,238,6.2,9.2,62,0.00,CLR,,0.00,WeatherDisplay:10.37,2013-05-15 15:51:00,
2013-05-15 11:52:00,77.7,64.5,30.06,West,273,7.6,11.5,64,0.00,CLR,,0.00,WeatherDisplay:10.37,2013-05-15 15:52:00,
2013-05-15 11:55:00,77.7,65.9,30.06,SW,235,5.6,9.2,67,0.00,CLR,,0.00,WeatherDisplay:10.37,2013-05-15 15:55:00,
2013-05-15 11:56:00,77.7,65.9,30.06,West,262,6.4,11.5,67,0.00,CLR,,0.00,WeatherDisplay:10.37,2013-05-15 15:56:00,
2013-05-15 11:57:00,77.8,65.1,30.06,WSW,251,8.4,12.7,65,0.00,CLR,,0.00,WeatherDisplay:10.37,2013-05-15 15:57:00,
2013-05-15 12:00:00,77.7,64.5,30.06,SSW,203,8.0,11.5,64,0.00,CLR,,0.00,WeatherDisplay:10.37,2013-05-15 16:00:00,
2013-05-15 12:01:00,77.7,64.1,30.06,South,188,6.0,12.7,63,0.00,FEW,,0.00,WeatherDisplay:10.37,2013-05-15 16:01:00,
2013-05-15 12:02:00,77.8,64.6,30.06,South,186,6.5,13.8,64,0.00,FEW,,0.00,WeatherDisplay:10.37,2013-05-15 16:02:00,
2013-05-15 12:03:00,77.9,65.2,30.06,SSW,201,8.1,11.5,65,0.00,FEW,,0.00,WeatherDisplay:10.37,2013-05-15 16:03:00,
2013-05-15 12:06:00,78.1,64.5,30.05,SSW,203,4.9,9.2,63,0.00,FEW,,0.00,WeatherDisplay:10.37,2013-05-15 16:06:00,
2013-05-15 12:07:00,78.2,64.1,30.05,SW,233,9.9,11.5,62,0.00,FEW,,0.00,WeatherDisplay:10.37,2013-05-15 16:07:00,
2013-05-15 12:08:00,78.2,64.6,30.05,WSW,237,6.8,11.5,63,0.00,FEW,,0.00,WeatherDisplay:10.37,2013-05-15 16:08:00,
2013-05-15 12:09:00,78.3,66.0,30.05,SSW,194,4.0,9.2,66,0.00,FEW,,0.00,WeatherDisplay:10.37,2013-05-15 16:09:00,
2013-05-15 12:11:00,78.5,65.3,30.05,SSW,194,2.0,5.0,64,0.00,FEW,,0.00,WeatherDisplay:10.37,2013-05-15 16:11:00,
2013-05-15 12:13:00,78.7,64.6,30.05,South,183,6.8,11.5,62,0.00,FEW,,0.00,WeatherDisplay:10.37,2013-05-15 16:13:00,
2013-05-15 12:15:00,78.8,65.1,30.05,West,259,6.5,11.5,63,0.00,FEW,,0.00,WeatherDisplay:10.37,2013-05-15 16:15:00,
2013-05-15 12:16:00,78.8,65.6,30.05,West,275,5.7,9.2,64,0.00,FEW,,0.00,WeatherDisplay:10.37,2013-05-15 16:16:00,
2013-05-15 12:18:00,78.8,65.6,30.05,SW,214,6.9,11.5,64,0.00,FEW,,0.00,WeatherDisplay:10.37,2013-05-15 16:18:00,
2013-05-15 12:19:00,79.0,66.2,30.05,SSW,210,1.5,11.5,65,0.00,FEW,,0.00,WeatherDisplay:10.37,2013-05-15 16:19:00,
2013-05-15 12:21:00,79.1,65.9,30.05,SW,234,8.1,11.5,64,0.00,FEW,,0.00,WeatherDisplay:10.37,2013-05-15 16:21:00,
2013-05-15 12:24:00,79.3,66.1,30.05,WSW,240,3.5,8.1,64,0.00,FEW,,0.00,WeatherDisplay:10.37,2013-05-15 16:24:00,
2013-05-15 12:25:00,79.4,65.2,30.05,West,259,4.7,8.0,62,0.00,FEW,,0.00,WeatherDisplay:10.37,2013-05-15 16:25:00,
2013-05-15 12:26:00,79.5,65.3,30.05,SW,217,5.4,9.2,62,0.00,FEW,,0.00,WeatherDisplay:10.37,2013-05-15 16:26:00,
2013-05-15 12:27:00,79.5,65.3,30.05,WSW,245,6.3,11.0,62,0.00,FEW,,0.00,WeatherDisplay:10.37,2013-05-15 16:27:00,
2013-05-15 12:29:00,79.6,65.4,30.05,West,269,7.1,11.5,62,0.00,FEW,,0.00,WeatherDisplay:10.37,2013-05-15 16:29:00,
2013-05-15 12:30:00,79.6,65.4,30.05,West,270,5.3,8.1,62,0.00,FEW,,0.00,WeatherDisplay:10.37,2013-05-15 16:30:00,
2013-05-15 12:32:00,79.5,64.4,30.04,WSW,237,7.9,11.5,60,0.00,FEW,,0.00,WeatherDisplay:10.37,2013-05-15 16:32:00,
2013-05-15 12:35:00,79.5,65.8,30.04,SW,233,8.0,11.5,63,0.00,FEW,,0.00,WeatherDisplay:10.37,2013-05-15 16:35:00,
2013-05-15 12:36:00,79.5,65.3,30.04,WSW,250,6.8,11.0,62,0.00,FEW,,0.00,WeatherDisplay:10.37,2013-05-15 16:36:00,
2013-05-15 12:37:00,79.6,65.4,30.04,WSW,238,3.8,6.9,62,0.00,FEW,,0.00,WeatherDisplay:10.37,2013-05-15 16:37:00,
2013-05-15 12:38:00,79.7,65.5,30.04,SW,236,6.1,6.9,62,0.00,FEW,,0.00,WeatherDisplay:10.37,2013-05-15 16:38:00,
2013-05-15 12:42:00,80.0,66.7,30.04,SSW,199,6.0,13.8,64,0.00,FEW,,0.00,WeatherDisplay:10.37,2013-05-15 16:42:00,
2013-05-15 12:44:00,80.1,65.4,30.04,SSW,194,9.9,12.7,61,0.00,FEW,,0.00,WeatherDisplay:10.37,2013-05-15 16:44:00,
2013-05-15 12:48:00,80.5,65.8,30.04,SSW,207,6.0,9.2,61,0.00,FEW,,0.00,WeatherDisplay:10.37,2013-05-15 16:48:00,
2013-05-15 12:49:00,80.6,66.8,30.04,WSW,248,7.2,9.0,63,0.00,FEW,,0.00,WeatherDisplay:10.37,2013-05-15 16:49:00,
2013-05-15 12:54:00,80.7,65.5,30.03,SSW,208,7.3,10.4,60,0.00,FEW,,0.00,WeatherDisplay:10.37,2013-05-15 16:54:00,
2013-05-15 12:56:00,80.7,64.5,30.03,SSW,204,9.4,10.4,58,0.00,FEW,,0.00,WeatherDisplay:10.37,2013-05-15 16:56:00,
2013-05-15 13:01:00,80.9,65.7,30.03,SW,230,6.7,12.7,60,0.00,FEW,,0.00,WeatherDisplay:10.37,2013-05-15 17:01:00,
2013-05-15 13:02:00,81.0,65.8,30.03,SW,217,7.6,10.0,60,0.00,FEW,,0.00,WeatherDisplay:10.37,2013-05-15 17:02:00,
2013-05-15 13:06:00,81.4,67.1,30.03,SW,235,3.5,7.0,62,0.00,FEW,,0.00,WeatherDisplay:10.37,2013-05-15 17:06:00,
2013-05-15 13:07:00,81.4,67.1,30.03,SW,233,3.7,6.0,62,0.00,FEW,,0.00,WeatherDisplay:10.37,2013-05-15 17:07:00,
2013-05-15 13:12:00,81.6,66.8,30.03,SW,223,5.7,11.5,61,0.00,FEW,,0.00,WeatherDisplay:10.37,2013-05-15 17:12:00,
2013-05-15 13:13:00,81.6,65.4,30.03,South,187,6.2,10.4,58,0.00,FEW,,0.00,WeatherDisplay:10.37,2013-05-15 17:13:00,
2013-05-15 13:17:00,81.8,67.5,30.03,South,191,7.8,8.1,62,0.00,FEW,,0.00,WeatherDisplay:10.37,2013-05-15 17:17:00,
2013-05-15 13:19:00,81.9,66.2,30.03,SW,224,5.7,11.5,59,0.00,FEW,,0.00,WeatherDisplay:10.37,2013-05-15 17:19:00,
2013-05-15 13:20:00,82.0,67.2,30.03,WSW,240,4.1,10.4,61,0.00,FEW,,0.00,WeatherDisplay:10.37,2013-05-15 17:20:00,
2013-05-15 13:22:00,82.2,67.4,30.03,SSW,201,5.3,10.4,61,0.00,FEW,,0.00,WeatherDisplay:10.37,2013-05-15 17:22:00,
2013-05-15 13:23:00,82.1,66.4,30.03,SW,224,6.2,10.4,59,0.00,FEW,,0.00,WeatherDisplay:10.37,2013-05-15 17:23:00,
2013-05-15 13:24:00,82.2,66.0,30.03,WSW,253,7.9,11.5,58,0.00,FEW,,0.00,WeatherDisplay:10.37,2013-05-15 17:24:00,
2013-05-15 13:28:00,82.1,66.4,30.03,WSW,257,5.4,8.1,59,0.00,FEW,,0.00,WeatherDisplay:10.37,2013-05-15 17:28:00,
2013-05-15 13:29:00,82.1,65.9,30.03,SSW,211,7.9,13.0,58,0.00,FEW,,0.00,WeatherDisplay:10.37,2013-05-15 17:29:00,
2013-05-15 13:30:00,82.0,65.3,30.03,SSW,210,11.3,13.8,57,0.00,FEW,,0.00,WeatherDisplay:10.37,2013-05-15 17:30:00,
2013-05-15 13:35:00,82.3,65.5,30.03,WSW,244,8.4,12.7,57,0.00,FEW,,0.00,WeatherDisplay:10.37,2013-05-15 17:35:00,
2013-05-15 13:37:00,82.2,65.4,30.03,SW,217,6.6,12.7,57,0.00,FEW,,0.00,WeatherDisplay:10.37,2013-05-15 17:37:00,
2013-05-15 13:40:00,82.1,65.4,30.03,WSW,254,5.3,9.2,57,0.00,FEW,,0.00,WeatherDisplay:10.37,2013-05-15 17:40:00,
2013-05-15 13:41:00,82.2,66.0,30.03,SW,232,4.7,10.0,58,0.00,FEW,,0.00,WeatherDisplay:10.37,2013-05-15 17:41:00,
2013-05-15 13:42:00,82.1,65.9,30.03,SSW,200,9.4,11.5,58,0.00,FEW,,0.00,WeatherDisplay:10.37,2013-05-15 17:42:00,
2013-05-15 13:45:00,82.6,66.8,30.02,SSW,206,6.3,12.7,59,0.00,FEW,,0.00,WeatherDisplay:10.37,2013-05-15 17:45:00,
2013-05-15 13:46:00,82.6,65.8,30.02,SW,233,7.4,11.5,57,0.00,FEW,,0.00,WeatherDisplay:10.37,2013-05-15 17:46:00,
2013-05-15 13:47:00,82.6,65.3,30.02,WSW,243,9.7,12.7,56,0.00,FEW,,0.00,WeatherDisplay:10.37,2013-05-15 17:47:00,
2013-05-15 13:51:00,82.8,66.0,30.02,WSW,242,6.4,8.1,57,0.00,FEW,,0.00,WeatherDisplay:10.37,2013-05-15 17:51:00,
2013-05-15 13:53:00,83.0,67.2,30.02,WSW,251,0.1,4.6,59,0.00,FEW,,0.00,WeatherDisplay:10.37,2013-05-15 17:53:00,
2013-05-15 13:56:00,80.1,64.0,30.02,WSW,251,5.6,8.1,58,0.00,FEW,,0.00,WeatherDisplay:10.37,2013-05-15 17:56:00,
2013-05-15 13:58:00,79.0,62.5,30.02,WSW,242,7.2,10.4,57,0.00,FEW,,0.00,WeatherDisplay:10.37,2013-05-15 17:58:00,
2013-05-15 13:59:00,78.9,62.4,30.02,SW,234,6.4,9.2,57,0.00,FEW,,0.00,WeatherDisplay:10.37,2013-05-15 17:59:00,
2013-05-15 14:01:00,81.5,64.8,30.02,SSW,206,5.1,10.0,57,0.00,SCT,,0.00,WeatherDisplay:10.37,2013-05-15 18:01:00,
2013-05-15 14:03:00,82.2,65.4,30.02,SSW,193,7.4,15.0,57,0.00,SCT,,0.00,WeatherDisplay:10.37,2013-05-15 18:03:00,
2013-05-15 14:04:00,82.1,65.9,30.02,SW,222,3.8,9.2,58,0.00,SCT,,0.00,WeatherDisplay:10.37,2013-05-15 18:04:00,
2013-05-15 14:08:00,83.6,66.8,30.02,SW,214,6.3,11.5,57,0.00,SCT,,0.00,WeatherDisplay:10.37,2013-05-15 18:08:00,
2013-05-15 14:09:00,83.6,66.8,30.02,SW,219,8.8,11.5,57,0.00,SCT,,0.00,WeatherDisplay:10.37,2013-05-15 18:09:00,
2013-05-15 14:10:00,83.7,66.3,30.02,SW,220,8.7,13.8,56,0.00,SCT,,0.00,WeatherDisplay:10.37,2013-05-15 18:10:00,
2013-05-15 14:14:00,82.6,63.7,30.01,SSW,211,7.6,12.7,53,0.00,SCT,,0.00,WeatherDisplay:10.37,2013-05-15 18:14:00,
2013-05-15 14:15:00,81.2,64.0,30.01,SSW,198,6.0,9.2,56,0.00,SCT,,0.00,WeatherDisplay:10.37,2013-05-15 18:15:00,
2013-05-15 14:16:00,81.2,64.0,30.01,SSW,197,5.7,9.2,56,0.00,SCT,,0.00,WeatherDisplay:10.37,2013-05-15 18:16:00,
2013-05-15 14:19:00,84.3,66.9,30.01,SW,215,7.7,9.2,56,0.00,SCT,,0.00,WeatherDisplay:10.37,2013-05-15 18:19:00,
2013-05-15 14:21:00,84.4,69.0,30.01,SSW,211,2.8,7.0,60,0.00,SCT,,0.00,WeatherDisplay:10.37,2013-05-15 18:21:00,
2013-05-15 14:22:00,84.5,67.6,30.01,SW,220,3.2,6.9,57,0.00,SCT,,0.00,WeatherDisplay:10.37,2013-05-15 18:22:00,
2013-05-15 14:24:00,84.6,67.2,30.01,SSW,196,2.8,5.8,56,0.00,SCT,,0.00,WeatherDisplay:10.37,2013-05-15 18:24:00,
2013-05-15 14:26:00,84.5,67.1,30.01,South,180,4.1,9.2,56,0.00,SCT,,0.00,WeatherDisplay:10.37,2013-05-15 18:26:00,
2013-05-15 14:27:00,83.9,66.5,30.01,SSW,204,3.5,5.8,56,0.00,SCT,,0.00,WeatherDisplay:10.37,2013-05-15 18:27:00,
2013-05-15 14:29:00,84.7,67.8,30.00,South,169,1.9,5.8,57,0.00,SCT,,0.00,WeatherDisplay:10.37,2013-05-15 18:29:00,
2013-05-15 14:31:00,84.7,67.3,30.00,West,268,3.1,3.5,56,0.00,SCT,,0.00,WeatherDisplay:10.37,2013-05-15 18:31:00,
2013-05-15 14:32:00,84.6,66.1,30.00,WNW,291,3.4,5.8,54,0.00,SCT,,0.00,WeatherDisplay:10.37,2013-05-15 18:32:00,
2013-05-15 14:34:00,84.8,67.4,30.00,SW,217,5.7,6.9,56,0.00,SCT,,0.00,WeatherDisplay:10.37,2013-05-15 18:34:00,
2013-05-15 14:37:00,84.9,67.5,30.00,SSW,192,8.4,13.8,56,0.00,SCT,,0.00,WeatherDisplay:10.37,2013-05-15 18:37:00,
2013-05-15 14:38:00,85.0,67.5,30.00,SSW,193,5.1,11.5,56,0.00,SCT,,0.00,WeatherDisplay:10.37,2013-05-15 18:38:00,
2013-05-15 14:39:00,85.0,67.0,30.00,SW,217,5.0,14.0,55,0.00,SCT,,0.00,WeatherDisplay:10.37,2013-05-15 18:39:00,
2013-05-15 14:42:00,85.2,67.2,30.00,SW,217,6.6,10.4,55,0.00,SCT,,0.00,WeatherDisplay:10.37,2013-05-15 18:42:00,
2013-05-15 14:44:00,85.3,67.3,30.00,SW,230,1.3,5.8,55,0.00,SCT,,0.00,WeatherDisplay:10.37,2013-05-15 18:44:00,
2013-05-15 14:45:00,85.4,68.4,30.00,SW,217,3.0,11.0,57,0.00,SCT,,0.00,WeatherDisplay:10.37,2013-05-15 18:45:00,
2013-05-15 14:47:00,85.3,66.2,30.00,SW,223,8.7,16.1,53,0.00,SCT,,0.00,WeatherDisplay:10.37,2013-05-15 18:47:00,
2013-05-15 14:50:00,85.4,67.4,30.00,SW,224,5.3,9.2,55,0.00,SCT,,0.00,WeatherDisplay:10.37,2013-05-15 18:50:00,
2013-05-15 14:51:00,85.4,68.4,30.00,SW,216,3.9,8.1,57,0.00,SCT,,0.00,WeatherDisplay:10.37,2013-05-15 18:51:00,
2013-05-15 14:52:00,85.5,67.0,30.00,SW,234,3.8,8.1,54,0.00,SCT,,0.00,WeatherDisplay:10.37,2013-05-15 18:52:00,
2013-05-15 14:56:00,85.6,68.6,30.00,WNW,285,5.4,9.2,57,0.00,SCT,,0.00,WeatherDisplay:10.37,2013-05-15 18:56:00,
2013-05-15 14:57:00,85.6,67.6,30.00,SSW,209,5.5,8.1,55,0.00,SCT,,0.00,WeatherDisplay:10.37,2013-05-15 18:57:00,
2013-05-15 15:01:00,85.7,67.1,29.99,WSW,258,8.0,11.5,54,0.00,CLR,,0.00,WeatherDisplay:10.37,2013-05-15 19:01:00,
2013-05-15 15:02:00,85.7,67.7,29.99,WSW,241,8.6,11.5,55,0.00,CLR,,0.00,WeatherDisplay:10.37,2013-05-15 19:02:00,
2013-05-15 15:03:00,85.6,67.6,29.99,WSW,245,8.7,11.5,55,0.00,CLR,,0.00,WeatherDisplay:10.37,2013-05-15 19:03:00,
2013-05-15 15:07:00,85.8,69.3,29.99,SSW,213,4.7,10.0,58,0.00,CLR,,0.00,WeatherDisplay:10.37,2013-05-15 19:07:00,
2013-05-15 15:08:00,85.8,66.7,29.99,SW,221,8.5,11.5,53,0.00,CLR,,0.00,WeatherDisplay:10.37,2013-05-15 19:08:00,
2013-05-15 15:09:00,85.8,66.7,29.99,SW,216,8.1,11.5,53,0.00,CLR,,0.00,WeatherDisplay:10.37,2013-05-15 19:09:00,
2013-05-15 15:10:00,85.9,66.8,29.99,SSW,205,1.8,8.1,53,0.00,CLR,,0.00,WeatherDisplay:10.37,2013-05-15 19:10:00,
2013-05-15 15:14:00,86.6,70.1,29.99,SSW,193,3.4,7.0,58,0.00,CLR,,0.00,WeatherDisplay:10.37,2013-05-15 19:14:00,
2013-05-15 15:16:00,86.7,68.6,29.99,WSW,258,5.8,11.5,55,0.00,CLR,,0.00,WeatherDisplay:10.37,2013-05-15 19:16:00,
2013-05-15 15:19:00,86.6,68.0,29.99,SSW,211,5.7,10.4,54,0.00,CLR,,0.00,WeatherDisplay:10.37,2013-05-15 19:19:00,
2013-05-15 15:21:00,86.7,67.0,29.99,South,184,8.6,13.8,52,0.00,CLR,,0.00,WeatherDisplay:10.37,2013-05-15 19:21:00,
2013-05-15 15:24:00,86.9,68.3,29.98,SW,224,0.5,3.5,54,0.00,CLR,,0.00,WeatherDisplay:10.37,2013-05-15 19:24:00,
2013-05-15 15:25:00,87.1,69.5,29.98,SW,221,3.1,8.0,56,0.00,CLR,,0.00,WeatherDisplay:10.37,2013-05-15 19:25:00,
2013-05-15 15:26:00,87.1,67.3,29.98,SSW,208,7.7,11.5,52,0.00,CLR,,0.00,WeatherDisplay:10.37,2013-05-15 19:26:00,
2013-05-15 15:27:00,87.1,67.3,29.98,SW,235,7.7,11.5,52,0.00,CLR,,0.00,WeatherDisplay:10.37,2013-05-15 19:27:00,
2013-05-15 15:29:00,87.1,67.9,29.98,SW,224,4.8,11.5,53,0.00,CLR,,0.00,WeatherDisplay:10.37,2013-05-15 19:29:00,
2013-05-15 15:31:00,87.2,69.6,29.98,SSW,208,6.8,11.5,56,0.00,CLR,,0.00,WeatherDisplay:10.37,2013-05-15 19:31:00,
2013-05-15 15:32:00,87.2,68.5,29.98,SW,222,6.4,9.2,54,0.00,CLR,,0.00,WeatherDisplay:10.37,2013-05-15 19:32:00,
2013-05-15 15:34:00,87.3,68.6,29.98,SSW,212,2.8,8.1,54,0.00,CLR,,0.00,WeatherDisplay:10.37,2013-05-15 19:34:00,
2013-05-15 15:36:00,87.4,68.7,29.98,SW,217,4.0,10.0,54,0.00,CLR,,0.00,WeatherDisplay:10.37,2013-05-15 19:36:00,
2013-05-15 15:37:00,87.4,68.2,29.98,SSW,203,7.2,13.8,53,0.00,CLR,,0.00,WeatherDisplay:10.37,2013-05-15 19:37:00,
2013-05-15 15:42:00,87.5,68.3,29.98,SSW,205,5.8,11.5,53,0.00,CLR,,0.00,WeatherDisplay:10.37,2013-05-15 19:42:00,
2013-05-15 15:43:00,87.5,67.7,29.98,South,191,6.0,9.2,52,0.00,CLR,,0.00,WeatherDisplay:10.37,2013-05-15 19:43:00,
2013-05-15 15:48:00,87.3,67.5,29.97,SSW,199,7.1,11.5,52,0.00,CLR,,0.00,WeatherDisplay:10.37,2013-05-15 19:48:00,
2013-05-15 15:49:00,87.2,67.4,29.97,SSW,208,9.7,13.8,52,0.00,CLR,,0.00,WeatherDisplay:10.37,2013-05-15 19:49:00,
2013-05-15 15:53:00,87.1,67.9,29.97,SW,222,7.9,11.5,53,0.00,CLR,,0.00,WeatherDisplay:10.37,2013-05-15 19:53:00,
2013-05-15 15:54:00,87.0,67.8,29.97,South,182,5.0,12.7,53,0.00,CLR,,0.00,WeatherDisplay:10.37,2013-05-15 19:54:00,
2013-05-15 15:56:00,87.2,68.0,29.97,SSW,212,4.4,9.2,53,0.00,CLR,,0.00,WeatherDisplay:10.37,2013-05-15 19:56:00,
2013-05-15 15:58:00,87.5,67.7,29.97,SSW,197,8.4,11.5,52,0.00,CLR,,0.00,WeatherDisplay:10.37,2013-05-15 19:58:00,
2013-05-15 15:59:00,87.6,68.4,29.97,SSW,193,4.8,10.4,53,0.00,CLR,,0.00,WeatherDisplay:10.37,2013-05-15 19:59:00,
2013-05-15 16:00:00,87.7,69.0,29.97,SSW,192,5.1,16.0,54,0.00,CLR,,0.00,WeatherDisplay:10.37,2013-05-15 20:00:00,
2013-05-15 16:01:00,87.7,67.3,29.97,SSW,198,8.1,16.1,51,0.00,FEW,,0.00,WeatherDisplay:10.37,2013-05-15 20:01:00,
2013-05-15 16:03:00,88.0,70.9,29.97,South,186,2.6,9.2,57,0.00,FEW,,0.00,WeatherDisplay:10.37,2013-05-15 20:03:00,
2013-05-15 16:04:00,88.1,69.4,29.97,SSW,203,5.8,8.1,54,0.00,FEW,,0.00,WeatherDisplay:10.37,2013-05-15 20:04:00,
2013-05-15 16:06:00,88.2,68.4,29.96,SW,217,12.6,15.0,52,0.00,FEW,,0.00,WeatherDisplay:10.37,2013-05-15 20:06:00,
2013-05-15 16:07:00,88.2,67.2,29.97,SSW,211,11.4,19.6,50,0.00,FEW,,0.00,WeatherDisplay:10.37,2013-05-15 20:07:00,
2013-05-15 16:10:00,87.9,68.1,29.96,WSW,258,8.7,12.7,52,0.00,FEW,,0.00,WeatherDisplay:10.37,2013-05-15 20:10:00,
2013-05-15 16:12:00,87.6,68.4,29.96,West,277,3.7,6.9,53,0.00,FEW,,0.00,WeatherDisplay:10.37,2013-05-15 20:12:00,
2013-05-15 16:15:00,87.7,68.4,29.96,SSW,196,3.1,6.9,53,0.00,FEW,,0.00,WeatherDisplay:10.37,2013-05-15 20:15:00,
2013-05-15 16:16:00,87.8,70.1,29.96,South,171,0.4,5.8,56,0.00,FEW,,0.00,WeatherDisplay:10.37,2013-05-15 20:16:00,
2013-05-15 16:17:00,88.0,71.4,29.96,SSE,163,0.1,1.1,58,0.00,FEW,,0.00,WeatherDisplay:10.37,2013-05-15 20:17:00,
2013-05-15 16:21:00,88.5,70.8,29.96,SSW,204,2.1,6.9,56,0.00,FEW,,0.00,WeatherDisplay:10.37,2013-05-15 20:21:00,
2013-05-15 16:22:00,88.6,69.3,29.96,SW,225,2.3,5.0,53,0.00,FEW,,0.00,WeatherDisplay:10.37,2013-05-15 20:22:00,
2013-05-15 16:23:00,88.6,69.3,29.96,SSW,209,5.6,10.4,53,0.00,FEW,,0.00,WeatherDisplay:10.37,2013-05-15 20:23:00,
2013-05-15 16:24:00,88.6,68.7,29.96,SSW,212,8.4,13.8,52,0.00,FEW,,0.00,WeatherDisplay:10.37,2013-05-15 20:24:00,
2013-05-15 16:26:00,88.5,69.7,29.96,SSW,201,6.3,11.5,54,0.00,FEW,,0.00,WeatherDisplay:10.37,2013-05-15 20:26:00,
2013-05-15 16:27:00,88.4,68.5,29.96,SW,214,4.7,10.4,52,0.00,FEW,,0.00,WeatherDisplay:10.37,2013-05-15 20:27:00,
2013-05-15 16:28:00,88.5,68.1,29.95,SW,230,6.2,11.5,51,0.00,FEW,,0.00,WeatherDisplay:10.37,2013-05-15 20:28:00,
2013-05-15 16:30:00,88.5,68.6,29.95,SW,227,6.9,10.4,52,0.00,FEW,,0.00,WeatherDisplay:10.37,2013-05-15 20:30:00,
2013-05-15 16:31:00,88.5,69.2,29.95,SSW,201,4.5,9.2,53,0.00,FEW,,0.00,WeatherDisplay:10.37,2013-05-15 20:31:00,
2013-05-15 16:32:00,88.6,68.7,29.95,South,182,4.5,6.9,52,0.00,FEW,,0.00,WeatherDisplay:10.37,2013-05-15 20:32:00,
2013-05-15 16:35:00,88.9,70.6,29.95,South,187,7.4,8.1,55,0.00,FEW,,0.00,WeatherDisplay:10.37,2013-05-15 20:35:00,
2013-05-15 16:36:00,88.9,69.6,29.95,SSW,204,4.7,11.5,53,0.00,FEW,,0.00,WeatherDisplay:10.37,2013-05-15 20:36:00,
2013-05-15 16:38:00,88.8,69.5,29.95,WSW,241,7.9,9.2,53,0.00,FEW,,0.00,WeatherDisplay:10.37,2013-05-15 20:38:00,
2013-05-15 16:40:00,88.2,68.9,29.95,West,270,6.4,8.1,53,0.00,FEW,,0.00,WeatherDisplay:10.37,2013-05-15 20:40:00,
2013-05-15 16:41:00,88.2,68.9,29.95,WNW,287,6.9,10.4,53,0.00,FEW,,0.00,WeatherDisplay:10.37,2013-05-15 20:41:00,
2013-05-15 16:43:00,87.9,70.8,29.95,South,187,3.4,8.1,57,0.00,FEW,,0.00,WeatherDisplay:10.37,2013-05-15 20:43:00,
2013-05-15 16:44:00,88.1,70.9,29.95,South,188,4.6,4.6,57,0.00,FEW,,0.00,WeatherDisplay:10.37,2013-05-15 20:44:00,
2013-05-15 16:45:00,88.3,71.6,29.95,South,183,3.0,7.0,58,0.00,FEW,,0.00,WeatherDisplay:10.37,2013-05-15 20:45:00,
2013-05-15 16:46:00,88.4,70.7,29.95,SSW,200,6.8,7.0,56,0.00,FEW,,0.00,WeatherDisplay:10.37,2013-05-15 20:46:00,
2013-05-15 16:50:00,88.3,69.6,29.95,SW,217,6.0,12.0,54,0.00,FEW,,0.00,WeatherDisplay:10.37,2013-05-15 20:50:00,
2013-05-15 16:51:00,88.5,69.7,29.95,SW,222,3.1,5.8,54,0.00,FEW,,0.00,WeatherDisplay:10.37,2013-05-15 20:51:00,
2013-05-15 16:52:00,88.6,69.3,29.95,SSW,201,5.4,8.1,53,0.00,FEW,,0.00,WeatherDisplay:10.37,2013-05-15 20:52:00,
2013-05-15 16:55:00,88.8,68.9,29.95,SSW,195,4.9,11.0,52,0.00,FEW,,0.00,WeatherDisplay:10.37,2013-05-15 20:55:00,
2013-05-15 16:56:00,88.7,68.8,29.95,SW,226,6.3,11.5,52,0.00,FEW,,0.00,WeatherDisplay:10.37,2013-05-15 20:56:00,
2013-05-15 16:57:00,88.7,68.8,29.95,South,188,8.1,9.2,52,0.00,FEW,,0.00,WeatherDisplay:10.37,2013-05-15 20:57:00,
2013-05-15 17:00:00,88.8,70.5,29.95,SSW,197,4.1,6.9,55,0.00,FEW,,0.00,WeatherDisplay:10.37,2013-05-15 21:00:00,
2013-05-15 17:02:00,88.9,69.0,29.95,SSW,200,9.4,18.4,52,0.00,FEW,,0.00,WeatherDisplay:10.37,2013-05-15 21:02:00,
2013-05-15 17:05:00,88.8,68.9,29.94,SW,221,7.4,11.5,52,0.00,FEW,,0.00,WeatherDisplay:10.37,2013-05-15 21:05:00,
2013-05-15 17:07:00,88.6,68.7,29.95,SW,219,7.5,12.7,52,0.00,FEW,,0.00,WeatherDisplay:10.37,2013-05-15 21:07:00,
2013-05-15 17:09:00,88.5,68.6,29.94,SW,215,8.4,11.5,52,0.00,FEW,,0.00,WeatherDisplay:10.37,2013-05-15 21:09:00,
2013-05-15 17:10:00,88.4,69.6,29.94,SW,229,7.4,11.5,54,0.00,FEW,,0.00,WeatherDisplay:10.37,2013-05-15 21:10:00,
2013-05-15 17:11:00,88.4,68.5,29.94,SW,228,7.6,11.5,52,0.00,FEW,,0.00,WeatherDisplay:10.37,2013-05-15 21:11:00,
2013-05-15 17:12:00,88.2,68.4,29.94,West,262,7.2,10.4,52,0.00,FEW,,0.00,WeatherDisplay:10.37,2013-05-15 21:12:00,
2013-05-15 17:15:00,88.1,68.8,29.94,SSW,209,8.6,12.7,53,0.00,FEW,,0.00,WeatherDisplay:10.37,2013-05-15 21:15:00,
2013-05-15 17:16:00,88.1,68.8,29.94,South,187,4.8,10.4,53,0.00,FEW,,0.00,WeatherDisplay:10.37,2013-05-15 21:16:00,
2013-05-15 17:17:00,88.1,68.8,29.94,SW,226,7.8,9.2,53,0.00,FEW,,0.00,WeatherDisplay:10.37,2013-05-15 21:17:00,
2013-05-15 17:20:00,88.3,68.4,29.94,SSW,208,3.7,9.2,52,0.00,FEW,,0.00,WeatherDisplay:10.37,2013-05-15 21:20:00,
2013-05-15 17:21:00,88.3,68.4,29.94,SW,227,6.3,15.0,52,0.00,FEW,,0.00,WeatherDisplay:10.37,2013-05-15 21:21:00,
2013-05-15 17:23:00,88.2,68.4,29.94,SSW,194,8.5,15.0,52,0.00,FEW,,0.00,WeatherDisplay:10.37,2013-05-15 21:23:00,
2013-05-15 17:25:00,88.1,68.3,29.94,South,187,7.5,11.5,52,0.00,FEW,,0.00,WeatherDisplay:10.37,2013-05-15 21:25:00,
2013-05-15 17:26:00,88.2,68.9,29.94,SW,220,4.1,6.9,53,0.00,FEW,,0.00,WeatherDisplay:10.37,2013-05-15 21:26:00,
2013-05-15 17:28:00,88.4,69.1,29.94,South,186,7.4,10.4,53,0.00,FEW,,0.00,WeatherDisplay:10.37,2013-05-15 21:28:00,
2013-05-15 17:31:00,88.4,68.0,29.94,SSW,205,6.4,11.5,51,0.00,FEW,,0.00,WeatherDisplay:10.37,2013-05-15 21:31:00,
2013-05-15 17:34:00,88.5,69.2,29.94,SSW,201,7.9,11.5,53,0.00,FEW,,0.00,WeatherDisplay:10.37,2013-05-15 21:34:00,
2013-05-15 17:37:00,88.4,67.4,29.94,SSW,207,9.3,11.5,50,0.00,FEW,,0.00,WeatherDisplay:10.37,2013-05-15 21:37:00,
2013-05-15 17:38:00,88.4,68.5,29.94,SSW,202,5.4,12.0,52,0.00,FEW,,0.00,WeatherDisplay:10.37,2013-05-15 21:38:00,
2013-05-15 17:39:00,88.4,68.0,29.94,SSW,208,7.0,15.0,51,0.00,FEW,,0.00,WeatherDisplay:10.37,2013-05-15 21:39:00,
2013-05-15 17:40:00,88.4,68.0,29.94,SW,223,7.4,11.5,51,0.00,FEW,,0.00,WeatherDisplay:10.37,2013-05-15 21:40:00,
2013-05-15 17:44:00,88.2,68.9,29.94,SW,214,4.2,7.0,53,0.00,FEW,,0.00,WeatherDisplay:10.37,2013-05-15 21:44:00,
2013-05-15 17:45:00,88.1,67.7,29.94,SSW,193,7.9,10.4,51,0.00,FEW,,0.00,WeatherDisplay:10.37,2013-05-15 21:45:00,
2013-05-15 17:49:00,88.2,68.9,29.93,SSW,213,8.6,11.5,53,0.00,FEW,,0.00,WeatherDisplay:10.37,2013-05-15 21:49:00,
2013-05-15 17:51:00,88.4,68.5,29.94,SSW,212,8.5,11.0,52,0.00,FEW,,0.00,WeatherDisplay:10.37,2013-05-15 21:51:00,
2013-05-15 17:53:00,88.3,67.9,29.93,SSW,198,9.2,11.5,51,0.00,FEW,,0.00,WeatherDisplay:10.37,2013-05-15 21:53:00,
2013-05-15 17:54:00,88.3,67.9,29.93,SW,222,7.9,12.7,51,0.00,FEW,,0.00,WeatherDisplay:10.37,2013-05-15 21:54:00,
2013-05-15 17:56:00,88.2,68.4,29.93,SSW,206,7.1,12.0,52,0.00,FEW,,0.00,WeatherDisplay:10.37,2013-05-15 21:56:00,
2013-05-15 17:57:00,88.3,68.4,29.93,SW,232,6.9,15.0,52,0.00,FEW,,0.00,WeatherDisplay:10.37,2013-05-15 21:57:00,
2013-05-15 17:59:00,88.3,67.9,29.93,SSW,207,5.7,9.2,51,0.00,FEW,,0.00,WeatherDisplay:10.37,2013-05-15 21:59:00,
2013-05-15 18:01:00,88.2,67.8,29.93,SW,220,6.9,11.5,51,0.00,SCT,,0.00,WeatherDisplay:10.37,2013-05-15 22:01:00,
2013-05-15 18:02:00,88.1,68.3,29.93,SW,219,7.5,10.4,52,0.00,SCT,,0.00,WeatherDisplay:10.37,2013-05-15 22:02:00,
2013-05-15 18:04:00,88.0,67.6,29.93,SSW,202,6.7,11.5,51,0.00,SCT,,0.00,WeatherDisplay:10.37,2013-05-15 22:04:00,
2013-05-15 18:05:00,88.0,67.6,29.93,SSW,204,5.6,11.5,51,0.00,SCT,,0.00,WeatherDisplay:10.37,2013-05-15 22:05:00,
2013-05-15 18:06:00,87.9,68.1,29.93,SW,221,7.4,9.2,52,0.00,SCT,,0.00,WeatherDisplay:10.37,2013-05-15 22:06:00,
2013-05-15 18:09:00,87.7,67.9,29.93,SW,217,5.4,11.5,52,0.00,SCT,,0.00,WeatherDisplay:10.37,2013-05-15 22:09:00,
2013-05-15 18:10:00,87.7,68.4,29.93,SSW,196,4.3,9.2,53,0.00,SCT,,0.00,WeatherDisplay:10.37,2013-05-15 22:10:00,
2013-05-15 18:11:00,87.8,68.0,29.93,SSW,202,8.3,10.4,52,0.00,SCT,,0.00,WeatherDisplay:10.37,2013-05-15 22:11:00,
2013-05-15 18:12:00,87.8,68.0,29.93,SSW,207,8.3,11.5,52,0.00,SCT,,0.00,WeatherDisplay:10.37,2013-05-15 22:12:00,
2013-05-15 18:15:00,87.9,68.1,29.93,SW,221,6.5,11.5,52,0.00,SCT,,0.00,WeatherDisplay:10.37,2013-05-15 22:15:00,
2013-05-15 18:17:00,88.0,69.3,29.93,SSW,207,4.8,8.1,54,0.00,SCT,,0.00,WeatherDisplay:10.37,2013-05-15 22:17:00,
2013-05-15 18:20:00,88.2,68.4,29.93,SSW,196,7.1,11.5,52,0.00,SCT,,0.00,WeatherDisplay:10.37,2013-05-15 22:20:00,
2013-05-15 18:21:00,88.2,68.4,29.93,SW,216,7.8,12.7,52,0.00,SCT,,0.00,WeatherDisplay:10.37,2013-05-15 22:21:00,
2013-05-15 18:23:00,88.1,68.8,29.93,South,190,5.6,8.1,53,0.00,SCT,,0.00,WeatherDisplay:10.37,2013-05-15 22:23:00,
2013-05-15 18:26:00,88.2,68.4,29.93,South,184,7.5,11.5,52,0.00,SCT,,0.00,WeatherDisplay:10.37,2013-05-15 22:26:00,
2013-05-15 18:27:00,88.1,68.3,29.93,SSW,193,5.6,11.5,52,0.00,SCT,,0.00,WeatherDisplay:10.37,2013-05-15 22:27:00,
2013-05-15 18:28:00,88.0,68.2,29.93,SW,232,5.1,9.2,52,0.00,SCT,,0.00,WeatherDisplay:10.37,2013-05-15 22:28:00,
2013-05-15 18:31:00,87.8,68.5,29.93,South,188,5.2,8.1,53,0.00,SCT,,0.00,WeatherDisplay:10.37,2013-05-15 22:31:00,
2013-05-15 18:33:00,87.7,67.9,29.93,SW,231,4.2,9.2,52,0.00,SCT,,0.00,WeatherDisplay:10.37,2013-05-15 22:33:00,
2013-05-15 18:34:00,87.6,68.4,29.92,SW,214,4.6,8.1,53,0.00,SCT,,0.00,WeatherDisplay:10.37,2013-05-15 22:34:00,
2013-05-15 18:37:00,87.6,68.4,29.92,SW,219,5.6,9.2,53,0.00,SCT,,0.00,WeatherDisplay:10.37,2013-05-15 22:37:00,
2013-05-15 18:38:00,87.7,68.4,29.92,WSW,255,3.9,5.8,53,0.00,SCT,,0.00,WeatherDisplay:10.37,2013-05-15 22:38:00,
2013-05-15 18:40:00,87.7,69.5,29.92,SSW,195,3.0,5.0,55,0.00,SCT,,0.00,WeatherDisplay:10.37,2013-05-15 22:40:00,
2013-05-15 18:43:00,87.7,67.9,29.92,SSW,212,4.8,7.0,52,0.00,SCT,,0.00,WeatherDisplay:10.37,2013-05-15 22:43:00,
2013-05-15 18:45:00,87.5,67.1,29.92,SSW,208,2.4,6.9,51,0.00,SCT,,0.00,WeatherDisplay:10.37,2013-05-15 22:45:00,
2013-05-15 18:46:00,87.4,68.7,29.92,SW,218,1.5,5.8,54,0.00,SCT,,0.00,WeatherDisplay:10.37,2013-05-15 22:46:00,
2013-05-15 18:48:00,87.4,67.6,29.92,SSW,204,4.6,9.2,52,0.00,SCT,,0.00,WeatherDisplay:10.37,2013-05-15 22:48:00,
2013-05-15 18:51:00,87.4,68.7,29.92,SSW,204,2.2,6.9,54,0.00,SCT,,0.00,WeatherDisplay:10.37,2013-05-15 22:51:00,
2013-05-15 18:52:00,87.4,68.7,29.92,SSW,197,2.3,4.6,54,0.00,SCT,,0.00,WeatherDisplay:10.37,2013-05-15 22:52:00,
2013-05-15 18:54:00,87.5,68.8,29.92,SSW,203,2.8,5.0,54,0.00,SCT,,0.00,WeatherDisplay:10.37,2013-05-15 22:54:00,
2013-05-15 18:56:00,87.5,67.7,29.92,SSW,203,7.3,11.5,52,0.00,SCT,,0.00,WeatherDisplay:10.37,2013-05-15 22:56:00,
2013-05-15 18:59:00,87.5,68.8,29.92,SSW,207,1.4,6.9,54,0.00,SCT,,0.00,WeatherDisplay:10.37,2013-05-15 22:59:00,
2013-05-15 19:01:00,87.4,69.3,29.92,SW,214,3.3,6.9,55,0.00,SCT,,0.00,WeatherDisplay:10.37,2013-05-15 23:01:00,
2013-05-15 19:02:00,87.3,69.2,29.92,SW,230,2.2,6.9,55,0.00,SCT,,0.00,WeatherDisplay:10.37,2013-05-15 23:02:00,
2013-05-15 19:04:00,87.3,69.7,29.92,SSW,210,2.4,4.6,56,0.00,SCT,,0.00,WeatherDisplay:10.37,2013-05-15 23:04:00,
2013-05-15 19:05:00,87.3,69.2,29.92,SSW,208,2.9,5.8,55,0.00,SCT,,0.00,WeatherDisplay:10.37,2013-05-15 23:05:00,
2013-05-15 19:06:00,87.1,69.0,29.92,WSW,245,3.7,7.0,55,0.00,SCT,,0.00,WeatherDisplay:10.37,2013-05-15 23:06:00,
2013-05-15 19:07:00,87.1,68.4,29.92,WSW,250,4.2,6.9,54,0.00,SCT,,0.00,WeatherDisplay:10.37,2013-05-15 23:07:00,
2013-05-15 19:09:00,86.7,68.1,29.92,SW,214,5.9,6.9,54,0.00,SCT,,0.00,WeatherDisplay:10.37,2013-05-15 23:09:00,
2013-05-15 19:10:00,86.6,68.0,29.92,SSW,204,5.1,11.5,54,0.00,SCT,,0.00,WeatherDisplay:10.37,2013-05-15 23:10:00,
2013-05-15 19:12:00,86.4,68.3,29.92,SW,235,2.7,6.0,55,0.00,SCT,,0.00,WeatherDisplay:10.37,2013-05-15 23:12:00,
2013-05-15 19:15:00,86.3,68.2,29.92,SSW,213,2.3,8.1,55,0.00,SCT,,0.00,WeatherDisplay:10.37,2013-05-15 23:15:00,
2013-05-15 19:16:00,86.3,68.2,29.92,SW,225,2.8,4.6,55,0.00,SCT,,0.00,WeatherDisplay:10.37,2013-05-15 23:16:00,
2013-05-15 19:18:00,86.3,68.2,29.92,SW,228,1.2,4.6,55,0.00,SCT,,0.00,WeatherDisplay:10.37,2013-05-15 23:18:00,
2013-05-15 19:21:00,86.4,67.8,29.92,SW,232,3.8,9.2,54,0.00,SCT,,0.00,WeatherDisplay:10.37,2013-05-15 23:21:00,
2013-05-15 19:23:00,86.3,67.7,29.92,SW,235,5.4,8.1,54,0.00,SCT,,0.00,WeatherDisplay:10.37,2013-05-15 23:23:00,
2013-05-15 19:24:00,86.3,68.2,29.92,SW,215,5.6,9.2,55,0.00,SCT,,0.00,WeatherDisplay:10.37,2013-05-15 23:24:00,
2013-05-15 19:26:00,86.1,68.0,29.92,WSW,237,1.7,6.9,55,0.00,SCT,,0.00,WeatherDisplay:10.37,2013-05-15 23:26:00,
2013-05-15 19:28:00,86.1,68.0,29.92,SSW,213,2.7,4.6,55,0.00,SCT,,0.00,WeatherDisplay:10.37,2013-05-15 23:28:00,
2013-05-15 19:29:00,86.3,68.8,29.92,SSW,212,4.0,4.0,56,0.00,SCT,,0.00,WeatherDisplay:10.37,2013-05-15 23:29:00,
2013-05-15 19:31:00,86.3,68.2,29.92,SW,216,5.8,9.2,55,0.00,SCT,,0.00,WeatherDisplay:10.37,2013-05-15 23:31:00,
2013-05-15 19:33:00,86.3,68.2,29.92,SW,214,6.1,10.4,55,0.00,SCT,,0.00,WeatherDisplay:10.37,2013-05-15 23:33:00,
2013-05-15 19:35:00,86.5,68.9,29.92,South,191,1.2,3.5,56,0.00,SCT,,0.00,WeatherDisplay:10.37,2013-05-15 23:35:00,
2013-05-15 19:37:00,86.6,68.5,29.92,SSW,203,2.2,3.5,55,0.00,SCT,,0.00,WeatherDisplay:10.37,2013-05-15 23:37:00,
2013-05-15 19:39:00,86.7,68.6,29.93,SSW,203,2.0,3.5,55,0.00,SCT,,0.00,WeatherDisplay:10.37,2013-05-15 23:39:00,
2013-05-15 19:40:00,86.6,68.5,29.92,SW,216,2.3,3.5,55,0.00,SCT,,0.00,WeatherDisplay:10.37,2013-05-15 23:40:00,
2013-05-15 19:43:00,86.3,69.3,29.92,South,189,1.7,3.5,57,0.00,SCT,,0.00,WeatherDisplay:10.37,2013-05-15 23:43:00,
2013-05-15 19:44:00,86.0,68.5,29.92,SW,217,5.9,6.0,56,0.00,SCT,,0.00,WeatherDisplay:10.37,2013-05-15 23:44:00,
2013-05-15 19:45:00,85.9,68.4,29.92,SSW,206,3.8,9.2,56,0.00,SCT,,0.00,WeatherDisplay:10.37,2013-05-15 23:45:00,
2013-05-15 19:48:00,85.5,68.0,29.92,SSW,203,4.2,8.0,56,0.00,SCT,,0.00,WeatherDisplay:10.37,2013-05-15 23:48:00,
2013-05-15 19:49:00,85.3,68.4,29.92,SSW,211,6.0,9.0,57,0.00,SCT,,0.00,WeatherDisplay:10.37,2013-05-15 23:49:00,
2013-05-15 19:51:00,85.0,68.1,29.92,SW,215,1.8,4.6,57,0.00,SCT,,0.00,WeatherDisplay:10.37,2013-05-15 23:51:00,
2013-05-15 19:54:00,84.6,67.7,29.92,SSW,192,3.3,6.9,57,0.00,SCT,,0.00,WeatherDisplay:10.37,2013-05-15 23:54:00,
2013-05-15 19:55:00,84.5,68.1,29.92,SSW,199,1.4,5.8,58,0.00,SCT,,0.00,WeatherDisplay:10.37,2013-05-15 23:55:00,
2013-05-15 19:57:00,84.4,68.0,29.92,SSW,198,0.9,3.5,58,0.00,SCT,,0.00,WeatherDisplay:10.37,2013-05-15 23:57:00,
2013-05-15 19:59:00,84.3,67.9,29.92,SSW,202,1.4,3.5,58,0.00,SCT,,0.00,WeatherDisplay:10.37,2013-05-15 23:59:00,
2013-05-15 20:02:00,84.2,68.3,29.92,SSW,202,0.4,2.0,59,0.00,SCT,,0.00,WeatherDisplay:10.37,2013-05-16 00:02:00,
2013-05-15 20:04:00,84.0,68.1,29.93,SSW,202,0.7,2.3,59,0.00,SCT,,0.00,WeatherDisplay:10.37,2013-05-16 00:04:00,
2013-05-15 20:05:00,84.0,69.1,29.93,SSW,202,0.4,2.3,61,0.00,SCT,,0.00,WeatherDisplay:10.37,2013-05-16 00:05:00,
2013-05-15 20:07:00,83.8,68.4,29.92,SW,223,0.3,3.5,60,0.00,SCT,,0.00,WeatherDisplay:10.37,2013-05-16 00:07:00,
2013-05-15 20:08:00,83.7,68.8,29.92,SW,226,1.0,2.3,61,0.00,SCT,,0.00,WeatherDisplay:10.37,2013-05-16 00:08:00,
2013-05-15 20:09:00,83.6,68.7,29.92,SW,216,0.0,3.0,61,0.00,SCT,,0.00,WeatherDisplay:10.37,2013-05-16 00:09:00,
2013-05-15 20:11:00,83.4,68.5,29.93,SW,226,0.0,1.1,61,0.00,SCT,,0.00,WeatherDisplay:10.37,2013-05-16 00:11:00,
2013-05-15 20:12:00,83.4,68.5,29.92,SW,226,0.0,1.1,61,0.00,SCT,,0.00,WeatherDisplay:10.37,2013-05-16 00:12:00,
2013-05-15 20:14:00,83.2,68.8,29.92,SW,226,0.0,0.0,62,0.00,SCT,,0.00,WeatherDisplay:10.37,2013-05-16 00:14:00,
2013-05-15 20:15:00,83.0,69.1,29.92,SW,226,0.0,0.0,63,0.00,SCT,,0.00,WeatherDisplay:10.37,2013-05-16 00:15:00,
2013-05-15 20:17:00,82.8,68.9,29.93,SW,226,0.0,0.0,63,0.00,SCT,,0.00,WeatherDisplay:10.37,2013-05-16 00:17:00,
2013-05-15 20:21:00,82.5,69.1,29.93,SW,226,0.0,0.0,64,0.00,SCT,,0.00,WeatherDisplay:10.37,2013-05-16 00:21:00,
2013-05-15 20:22:00,82.4,69.0,29.93,SW,226,0.0,0.0,64,0.00,SCT,,0.00,WeatherDisplay:10.37,2013-05-16 00:22:00,
2013-05-15 20:27:00,81.9,69.0,29.93,SW,226,0.0,0.0,65,0.00,SCT,,0.00,WeatherDisplay:10.37,2013-05-16 00:27:00,
2013-05-15 20:28:00,81.8,68.4,29.93,SW,226,0.0,0.0,64,0.00,SCT,,0.00,WeatherDisplay:10.37,2013-05-16 00:28:00,
2013-05-15 20:32:00,81.4,68.5,29.93,SW,226,0.0,0.0,65,0.00,SCT,,0.00,WeatherDisplay:10.37,2013-05-16 00:32:00,
2013-05-15 20:33:00,81.4,68.5,29.93,SW,226,0.0,0.0,65,0.00,SCT,,0.00,WeatherDisplay:10.37,2013-05-16 00:33:00,
2013-05-15 20:34:00,81.2,69.2,29.93,SW,226,0.0,0.0,67,0.00,SCT,,0.00,WeatherDisplay:10.37,2013-05-16 00:34:00,
2013-05-15 20:38:00,80.8,68.4,29.93,SW,226,0.0,0.0,66,0.00,SCT,,0.00,WeatherDisplay:10.37,2013-05-16 00:38:00,
2013-05-15 20:39:00,80.8,68.4,29.93,SW,226,0.0,0.0,66,0.00,SCT,,0.00,WeatherDisplay:10.37,2013-05-16 00:39:00,
2013-05-15 20:44:00,80.5,68.5,29.93,SW,226,0.0,0.0,67,0.00,SCT,,0.00,WeatherDisplay:10.37,2013-05-16 00:44:00,
2013-05-15 20:46:00,80.4,68.9,29.93,SW,226,0.0,0.0,68,0.00,SCT,,0.00,WeatherDisplay:10.37,2013-05-16 00:46:00,
2013-05-15 20:47:00,80.3,68.3,29.93,SW,226,0.0,0.0,67,0.00,SCT,,0.00,WeatherDisplay:10.37,2013-05-16 00:47:00,
2013-05-15 20:49:00,80.1,68.6,29.93,SW,226,0.0,0.0,68,0.00,SCT,,0.00,WeatherDisplay:10.37,2013-05-16 00:49:00,
2013-05-15 20:50:00,80.0,68.5,29.93,SW,226,0.0,0.0,68,0.00,SCT,,0.00,WeatherDisplay:10.37,2013-05-16 00:50:00,
2013-05-15 20:52:00,79.9,68.8,29.93,SW,226,0.0,0.0,69,0.00,SCT,,0.00,WeatherDisplay:10.37,2013-05-16 00:52:00,
2013-05-15 20:53:00,79.8,68.7,29.93,SW,226,0.0,0.0,69,0.00,SCT,,0.00,WeatherDisplay:10.37,2013-05-16 00:53:00,
2013-05-15 20:55:00,79.7,68.6,29.93,SW,226,0.0,0.0,69,0.00,SCT,,0.00,WeatherDisplay:10.37,2013-05-16 00:55:00,
2013-05-15 20:56:00,79.6,68.5,29.93,SW,226,0.0,0.0,69,0.00,SCT,,0.00,WeatherDisplay:10.37,2013-05-16 00:56:00,
2013-05-15 20:57:00,79.5,68.4,29.93,SW,226,0.0,0.0,69,0.00,SCT,,0.00,WeatherDisplay:10.37,2013-05-16 00:57:00,
2013-05-15 20:59:00,79.3,68.2,29.93,SW,226,0.0,0.0,69,0.00,SCT,,0.00,WeatherDisplay:10.37,2013-05-16 00:59:00,
2013-05-15 21:00:00,79.1,68.9,29.93,SW,226,0.0,0.0,71,0.00,SCT,,0.00,WeatherDisplay:10.37,2013-05-16 01:00:00,
2013-05-15 21:02:00,79.0,68.0,29.93,SW,226,0.0,0.0,69,0.00,SCT,,0.00,WeatherDisplay:10.37,2013-05-16 01:02:00,
2013-05-15 21:04:00,78.5,68.3,29.93,SW,226,0.0,0.0,71,0.00,SCT,,0.00,WeatherDisplay:10.37,2013-05-16 01:04:00,
2013-05-15 21:06:00,78.4,68.2,29.93,SW,226,0.0,0.0,71,0.00,SCT,,0.00,WeatherDisplay:10.37,2013-05-16 01:06:00,
2013-05-15 21:08:00,78.1,68.3,29.93,SW,226,0.0,0.0,72,0.00,SCT,,0.00,WeatherDisplay:10.37,2013-05-16 01:08:00,
2013-05-15 21:11:00,77.5,68.2,29.93,SW,226,0.1,1.1,73,0.00,SCT,,0.00,WeatherDisplay:10.37,2013-05-16 01:11:00,
2013-05-15 21:13:00,77.2,68.3,29.93,SW,226,0.0,0.0,74,0.00,SCT,,0.00,WeatherDisplay:10.37,2013-05-16 01:13:00,
2013-05-15 21:17:00,77.4,68.5,29.93,SW,226,0.0,0.0,74,0.00,SCT,,0.00,WeatherDisplay:10.37,2013-05-16 01:17:00,
2013-05-15 21:19:00,77.6,68.7,29.93,SW,226,0.0,0.0,74,0.00,SCT,,0.00,WeatherDisplay:10.37,2013-05-16 01:19:00,
2013-05-15 21:22:00,77.6,68.7,29.93,SW,226,0.0,0.0,74,0.00,SCT,,0.00,WeatherDisplay:10.37,2013-05-16 01:22:00,
2013-05-15 21:24:00,77.2,68.3,29.93,SW,226,0.0,1.1,74,0.00,SCT,,0.00,WeatherDisplay:10.37,2013-05-16 01:24:00,
2013-05-15 21:25:00,77.1,68.6,29.93,SW,226,0.0,0.0,75,0.00,SCT,,0.00,WeatherDisplay:10.37,2013-05-16 01:25:00,
2013-05-15 21:29:00,76.7,68.6,29.93,SW,226,0.0,0.0,76,0.00,SCT,,0.00,WeatherDisplay:10.37,2013-05-16 01:29:00,
2013-05-15 21:30:00,76.7,68.6,29.93,SW,226,0.0,0.0,76,0.00,SCT,,0.00,WeatherDisplay:10.37,2013-05-16 01:30:00,
2013-05-15 21:31:00,76.7,68.2,29.93,SW,226,0.0,0.0,75,0.00,SCT,,0.00,WeatherDisplay:10.37,2013-05-16 01:31:00,
2013-05-15 21:35:00,76.3,68.2,29.93,SW,226,0.0,0.0,76,0.00,SCT,,0.00,WeatherDisplay:10.37,2013-05-16 01:35:00,
2013-05-15 21:36:00,76.1,68.4,29.93,SW,226,0.0,0.0,77,0.00,SCT,,0.00,WeatherDisplay:10.37,2013-05-16 01:36:00,
2013-05-15 21:37:00,76.0,68.3,29.93,SW,226,0.0,0.0,77,0.00,SCT,,0.00,WeatherDisplay:10.37,2013-05-16 01:37:00,
2013-05-15 21:41:00,75.9,68.2,29.93,SW,226,0.0,0.0,77,0.00,SCT,,0.00,WeatherDisplay:10.37,2013-05-16 01:41:00,
2013-05-15 21:42:00,75.9,68.2,29.93,SW,226,0.0,0.0,77,0.00,SCT,,0.00,WeatherDisplay:10.37,2013-05-16 01:42:00,
2013-05-15 21:44:00,75.8,68.1,29.93,SW,226,0.0,0.0,77,0.00,SCT,,0.00,WeatherDisplay:10.37,2013-05-16 01:44:00,
2013-05-15 21:47:00,75.7,68.0,29.94,SW,226,0.0,0.0,77,0.00,SCT,,0.00,WeatherDisplay:10.37,2013-05-16 01:47:00,
2013-05-15 21:49:00,75.6,67.9,29.94,SW,226,0.0,1.1,77,0.00,SCT,,0.00,WeatherDisplay:10.37,2013-05-16 01:49:00,
2013-05-15 21:50:00,75.5,68.2,29.94,SW,226,0.0,0.0,78,0.00,SCT,,0.00,WeatherDisplay:10.37,2013-05-16 01:50:00,
2013-05-15 21:54:00,75.1,67.8,29.94,SW,226,0.0,0.0,78,0.00,SCT,,0.00,WeatherDisplay:10.37,2013-05-16 01:54:00,
2013-05-15 21:55:00,75.0,67.7,29.94,SW,226,0.0,0.0,78,0.00,SCT,,0.00,WeatherDisplay:10.37,2013-05-16 01:55:00,
2013-05-15 21:56:00,75.0,67.7,29.94,SW,226,0.0,0.0,78,0.00,SCT,,0.00,WeatherDisplay:10.37,2013-05-16 01:56:00,
2013-05-15 21:59:00,75.2,67.9,29.94,SW,226,0.0,0.0,78,0.00,SCT,,0.00,WeatherDisplay:10.37,2013-05-16 01:59:00,
2013-05-15 22:00:00,75.3,68.0,29.94,SW,226,0.0,0.0,78,0.00,SCT,,0.00,WeatherDisplay:10.37,2013-05-16 02:00:00,
2013-05-15 22:01:00,75.3,68.0,29.94,SW,226,0.0,1.1,78,0.00,BKN,,0.00,WeatherDisplay:10.37,2013-05-16 02:01:00,
2013-05-15 22:06:00,75.4,68.1,29.94,SW,226,0.1,1.1,78,0.00,BKN,,0.00,WeatherDisplay:10.37,2013-05-16 02:06:00,
2013-05-15 22:07:00,75.4,68.1,29.94,SW,226,0.2,1.1,78,0.00,BKN,,0.00,WeatherDisplay:10.37,2013-05-16 02:07:00,
2013-05-15 22:08:00,75.4,67.7,29.94,SW,226,0.1,1.1,77,0.00,BKN,,0.00,WeatherDisplay:10.37,2013-05-16 02:08:00,
2013-05-15 22:12:00,75.4,68.1,29.94,SW,226,0.1,1.1,78,0.00,BKN,,0.00,WeatherDisplay:10.37,2013-05-16 02:12:00,
2013-05-15 22:13:00,75.4,68.1,29.94,SW,226,0.0,0.0,78,0.00,BKN,,0.00,WeatherDisplay:10.37,2013-05-16 02:13:00,
2013-05-15 22:14:00,75.3,68.0,29.94,SW,226,0.0,1.1,78,0.00,BKN,,0.00,WeatherDisplay:10.37,2013-05-16 02:14:00,
2013-05-15 22:18:00,74.6,67.7,29.95,SW,226,0.0,0.0,79,0.00,BKN,,0.00,WeatherDisplay:10.37,2013-05-16 02:18:00,
2013-05-15 22:19:00,74.5,67.6,29.95,SW,226,0.0,0.0,79,0.00,BKN,,0.00,WeatherDisplay:10.37,2013-05-16 02:19:00,
2013-05-15 22:21:00,74.4,67.5,29.95,SW,226,0.0,0.0,79,0.00,BKN,,0.00,WeatherDisplay:10.37,2013-05-16 02:21:00,
2013-05-15 22:23:00,74.4,67.8,29.95,SW,226,0.1,0.0,80,0.00,BKN,,0.00,WeatherDisplay:10.37,2013-05-16 02:23:00,
2013-05-15 22:24:00,74.4,67.5,29.95,SW,226,0.8,2.0,79,0.00,BKN,,0.00,WeatherDisplay:10.37,2013-05-16 02:24:00,
2013-05-15 22:25:00,74.4,67.5,29.95,SW,226,0.2,3.5,79,0.00,BKN,,0.00,WeatherDisplay:10.37,2013-05-16 02:25:00,
2013-05-15 22:26:00,74.4,67.5,29.95,SW,224,1.4,1.4,79,0.00,BKN,,0.00,WeatherDisplay:10.37,2013-05-16 02:26:00,
2013-05-15 22:29:00,74.4,67.5,29.95,SW,224,0.0,0.0,79,0.00,BKN,,0.00,WeatherDisplay:10.37,2013-05-16 02:29:00,
2013-05-15 22:31:00,74.3,67.4,29.95,SW,224,0.0,0.0,79,0.00,BKN,,0.00,WeatherDisplay:10.37,2013-05-16 02:31:00,
2013-05-15 22:32:00,74.3,67.7,29.95,SW,224,0.6,3.0,80,0.00,BKN,,0.00,WeatherDisplay:10.37,2013-05-16 02:32:00,
2013-05-15 22:34:00,74.4,67.8,29.94,SW,221,0.1,3.5,80,0.00,BKN,,0.00,WeatherDisplay:10.37,2013-05-16 02:34:00,
2013-05-15 22:36:00,74.4,67.5,29.95,SW,221,0.7,3.5,79,0.00,BKN,,0.00,WeatherDisplay:10.37,2013-05-16 02:36:00,
2013-05-15 22:37:00,74.3,67.7,29.95,SW,221,0.2,2.0,80,0.00,BKN,,0.00,WeatherDisplay:10.37,2013-05-16 02:37:00,
2013-05-15 22:40:00,74.3,67.4,29.95,SW,215,1.3,3.5,79,0.00,BKN,,0.00,WeatherDisplay:10.37,2013-05-16 02:40:00,
2013-05-15 22:41:00,74.3,67.7,29.95,SW,215,0.5,3.5,80,0.00,BKN,,0.00,WeatherDisplay:10.37,2013-05-16 02:41:00,
2013-05-15 22:42:00,74.2,67.3,29.95,SW,215,0.0,1.1,79,0.00,BKN,,0.00,WeatherDisplay:10.37,2013-05-16 02:42:00,
2013-05-15 22:43:00,74.2,67.6,29.95,SW,215,0.0,1.0,80,0.00,BKN,,0.00,WeatherDisplay:10.37,2013-05-16 02:43:00,
2013-05-15 22:46:00,74.3,67.4,29.95,SW,215,0.0,0.0,79,0.00,BKN,,0.00,WeatherDisplay:10.37,2013-05-16 02:46:00,
2013-05-15 22:48:00,74.4,67.8,29.95,SW,215,0.0,0.0,80,0.00,BKN,,0.00,WeatherDisplay:10.37,2013-05-16 02:48:00,
2013-05-15 22:49:00,74.4,67.8,29.95,SW,215,0.0,0.0,80,0.00,BKN,,0.00,WeatherDisplay:10.37,2013-05-16 02:49:00,
2013-05-15 22:51:00,74.4,67.8,29.95,SW,215,0.0,0.0,80,0.00,BKN,,0.00,WeatherDisplay:10.37,2013-05-16 02:51:00,
2013-05-15 22:54:00,74.3,67.7,29.95,SW,215,0.0,0.0,80,0.00,BKN,,0.00,WeatherDisplay:10.37,2013-05-16 02:54:00,
2013-05-15 22:56:00,74.2,67.3,29.96,SW,215,0.0,0.0,79,0.00,BKN,,0.00,WeatherDisplay:10.37,2013-05-16 02:56:00,
2013-05-15 22:57:00,74.2,67.6,29.96,SW,215,0.0,0.0,80,0.00,BKN,,0.00,WeatherDisplay:10.37,2013-05-16 02:57:00,
2013-05-15 22:59:00,74.2,67.6,29.96,SW,215,0.0,0.0,80,0.00,BKN,,0.00,WeatherDisplay:10.37,2013-05-16 02:59:00,
2013-05-15 23:00:00,74.1,67.2,29.96,SW,215,0.0,0.0,79,0.00,BKN,,0.00,WeatherDisplay:10.37,2013-05-16 03:00:00,
2013-05-15 23:01:00,74.0,67.1,29.96,SW,215,0.0,0.0,79,0.00,CLR,,0.00,WeatherDisplay:10.37,2013-05-16 03:01:00,
2013-05-15 23:03:00,73.9,67.0,29.96,SW,215,0.0,0.0,79,0.00,CLR,,0.00,WeatherDisplay:10.37,2013-05-16 03:03:00,
2013-05-15 23:04:00,73.9,67.3,29.96,SW,215,0.0,0.0,80,0.00,CLR,,0.00,WeatherDisplay:10.37,2013-05-16 03:04:00,
2013-05-15 23:06:00,73.8,67.2,29.96,SW,215,0.0,0.0,80,0.00,CLR,,0.00,WeatherDisplay:10.37,2013-05-16 03:06:00,
2013-05-15 23:07:00,73.7,66.8,29.96,SW,215,0.0,0.0,79,0.00,CLR,,0.00,WeatherDisplay:10.37,2013-05-16 03:07:00,
2013-05-15 23:09:00,73.5,66.9,29.96,SW,215,0.0,0.0,80,0.00,CLR,,0.00,WeatherDisplay:10.37,2013-05-16 03:09:00,
2013-05-15 23:11:00,73.4,66.5,29.96,SW,215,0.0,0.0,79,0.00,CLR,,0.00,WeatherDisplay:10.37,2013-05-16 03:11:00,
2013-05-15 23:12:00,73.4,66.9,29.96,SW,215,0.0,0.0,80,0.00,CLR,,0.00,WeatherDisplay:10.37,2013-05-16 03:12:00,
2013-05-15 23:14:00,73.2,66.7,29.96,SW,215,0.0,0.0,80,0.00,CLR,,0.00,WeatherDisplay:10.37,2013-05-16 03:14:00,
2013-05-15 23:16:00,72.9,66.7,29.96,SW,215,0.0,1.1,81,0.00,CLR,,0.00,WeatherDisplay:10.37,2013-05-16 03:16:00,
2013-05-15 23:19:00,72.3,66.8,29.96,SW,215,0.1,1.1,83,0.00,CLR,,0.00,WeatherDisplay:10.37,2013-05-16 03:19:00,
2013-05-15 23:21:00,72.1,66.6,29.96,SW,215,0.1,1.1,83,0.00,CLR,,0.00,WeatherDisplay:10.37,2013-05-16 03:21:00,
2013-05-15 23:22:00,72.1,66.6,29.96,SW,215,0.0,1.1,83,0.00,CLR,,0.00,WeatherDisplay:10.37,2013-05-16 03:22:00,
2013-05-15 23:25:00,72.1,66.6,29.96,SW,215,0.1,1.1,83,0.00,CLR,,0.00,WeatherDisplay:10.37,2013-05-16 03:25:00,
2013-05-15 23:26:00,72.1,66.6,29.96,SW,215,0.1,1.1,83,0.00,CLR,,0.00,WeatherDisplay:10.37,2013-05-16 03:26:00,
2013-05-15 23:27:00,72.1,66.6,29.96,SW,215,0.0,1.1,83,0.00,CLR,,0.00,WeatherDisplay:10.37,2013-05-16 03:27:00,
2013-05-15 23:30:00,72.1,66.3,29.96,SW,215,0.0,0.0,82,0.00,CLR,,0.00,WeatherDisplay:10.37,2013-05-16 03:30:00,
2013-05-15 23:32:00,72.1,66.3,29.96,SW,215,0.0,1.1,82,0.00,CLR,,0.00,WeatherDisplay:10.37,2013-05-16 03:32:00,
2013-05-15 23:33:00,72.0,66.6,29.96,SW,215,0.0,0.0,83,0.00,CLR,,0.00,WeatherDisplay:10.37,2013-05-16 03:33:00,
2013-05-15 23:34:00,72.0,66.2,29.96,SW,215,0.0,0.0,82,0.00,CLR,,0.00,WeatherDisplay:10.37,2013-05-16 03:34:00,
2013-05-15 23:35:00,72.0,66.6,29.96,SW,215,0.0,0.0,83,0.00,CLR,,0.00,WeatherDisplay:10.37,2013-05-16 03:35:00,
2013-05-15 23:37:00,72.1,66.6,29.96,SW,215,0.0,0.0,83,0.00,CLR,,0.00,WeatherDisplay:10.37,2013-05-16 03:37:00,
2013-05-15 23:38:00,72.2,66.7,29.96,SW,215,0.0,0.0,83,0.00,CLR,,0.00,WeatherDisplay:10.37,2013-05-16 03:38:00,
2013-05-15 23:39:00,72.2,66.4,29.96,SW,215,0.0,0.0,82,0.00,CLR,,0.00,WeatherDisplay:10.37,2013-05-16 03:39:00,
2013-05-15 23:40:00,72.2,66.4,29.96,SW,215,0.1,0.0,82,0.00,CLR,,0.00,WeatherDisplay:10.37,2013-05-16 03:40:00,
2013-05-15 23:44:00,72.1,66.6,29.96,SW,215,0.5,2.3,83,0.00,CLR,,0.00,WeatherDisplay:10.37,2013-05-16 03:44:00,
2013-05-15 23:46:00,72.0,66.2,29.96,SW,215,0.0,1.1,82,0.00,CLR,,0.00,WeatherDisplay:10.37,2013-05-16 03:46:00,
2013-05-15 23:49:00,71.9,66.1,29.96,SW,215,0.0,0.0,82,0.00,CLR,,0.00,WeatherDisplay:10.37,2013-05-16 03:49:00,
2013-05-15 23:50:00,71.8,66.0,29.96,SW,215,0.0,0.0,82,0.00,CLR,,0.00,WeatherDisplay:10.37,2013-05-16 03:50:00,
2013-05-15 23:52:00,71.8,66.4,29.96,SW,215,0.0,0.0,83,0.00,CLR,,0.00,WeatherDisplay:10.37,2013-05-16 03:52:00,
2013-05-15 23:54:00,71.7,66.3,29.96,SW,215,0.0,0.0,83,0.00,CLR,,0.00,WeatherDisplay:10.37,2013-05-16 03:54:00,
2013-05-15 23:56:00,71.7,65.6,29.96,SW,215,0.0,1.1,81,0.00,CLR,,0.00,WeatherDisplay:10.37,2013-05-16 03:56:00,
2013-05-15 23:57:00,71.7,65.6,29.96,SW,215,0.0,0.0,81,0.00,CLR,,0.00,WeatherDisplay:10.37,2013-05-16 03:57:00,